GEFSSGP_prec_meanprecacc_006.txt.gz
Total_Precipitation_Accumulation
0.00 0.02 0.04 0.10 0.15 0.06 0.00 0.00 0.00 0.00 0.00 0.00 0.00 0.00 0.00 0.00 0.00 0.01 0.00 0.00 0.00 0.00 0.00 0.00 0.00 0.00 0.00 0.02 0.04 0.07 0.06 0.04 0.07 0.07 0.07 0.09 0.07 0.05 0.02 0.01 0.01 0.00 0.02 0.05 0.05 0.04 0.01 0.01 0.03
0.00 0.01 0.04 0.14 0.08 0.00 0.00 0.00 0.00 0.00 0.00 0.00 0.00 0.00 0.00 0.00 0.00 0.00 0.00 0.00 0.00 0.00 0.00 0.00 0.00 0.00 0.01 0.02 0.06 0.09 0.09 0.06 0.08 0.07 0.07 0.07 0.07 0.04 0.06 0.08 0.02 0.01 0.01 0.02 0.03 0.02 0.00 0.01 0.04
0.00 0.01 0.10 0.10 0.02 0.00 0.00 0.00 0.00 0.00 0.00 0.00 0.00 0.00 0.00 0.00 0.00 0.00 0.00 0.00 0.00 0.00 0.00 0.01 0.01 0.01 0.01 0.03 0.12 0.16 0.15 0.10 0.04 0.02 0.03 0.03 0.03 0.03 0.10 0.05 0.00 0.01 0.01 0.02 0.03 0.02 0.00 0.00 0.01
0.01 0.04 0.16 0.07 0.01 0.00 0.00 0.00 0.00 0.00 0.00 0.00 0.00 0.00 0.00 0.00 0.00 0.00 0.00 0.00 0.00 0.00 0.00 0.03 0.07 0.03 0.02 0.05 0.15 0.16 0.14 0.13 0.04 0.01 0.01 0.01 0.01 0.03 0.05 0.03 0.02 0.00 0.01 0.02 0.02 0.02 0.00 0.00 0.00
0.04 0.11 0.28 0.42 0.04 0.00 0.00 0.00 0.00 0.00 0.00 0.00 0.00 0.00 0.00 0.00 0.00 0.00 0.00 0.00 0.00 0.01 0.01 0.04 0.09 0.04 0.02 0.05 0.08 0.05 0.09 0.14 0.07 0.00 0.00 0.01 0.01 0.03 0.04 0.05 0.02 0.00 0.01 0.01 0.01 0.00 0.00 0.00 0.00
0.09 0.18 0.35 0.50 0.04 0.00 0.00 0.00 0.00 0.00 0.00 0.00 0.00 0.00 0.00 0.00 0.00 0.00 0.00 0.00 0.00 0.01 0.01 0.03 0.06 0.03 0.02 0.05 0.05 0.03 0.07 0.10 0.04 0.02 0.01 0.01 0.02 0.03 0.05 0.05 0.01 0.00 0.01 0.02 0.02 0.00 0.00 0.00 0.01
0.08 0.14 0.11 0.09 0.02 0.00 0.00 0.00 0.00 0.00 0.00 0.00 0.00 0.00 0.00 0.00 0.00 0.00 0.00 0.00 0.00 0.00 0.01 0.03 0.02 0.01 0.02 0.04 0.03 0.06 0.07 0.06 0.04 0.03 0.01 0.02 0.02 0.03 0.04 0.03 0.00 0.00 0.01 0.02 0.01 0.00 0.00 0.00 0.00
0.08 0.09 0.09 0.08 0.04 0.02 0.01 0.00 0.00 0.00 0.00 0.00 0.00 0.00 0.00 0.00 0.00 0.00 0.01 0.03 0.02 0.01 0.00 0.00 0.00 0.01 0.01 0.02 0.04 0.08 0.07 0.04 0.04 0.03 0.01 0.03 0.02 0.02 0.03 0.01 0.00 0.00 0.00 0.00 0.00 0.00 0.00 0.00 0.00
0.08 0.06 0.05 0.07 0.06 0.03 0.01 0.00 0.00 0.00 0.00 0.00 0.00 0.00 0.00 0.00 0.00 0.00 0.01 0.05 0.08 0.06 0.03 0.01 0.01 0.01 0.02 0.04 0.05 0.06 0.05 0.04 0.03 0.02 0.03 0.03 0.02 0.03 0.01 0.00 0.00 0.00 0.00 0.00 0.00 0.00 0.00 0.00 0.00
0.12 0.05 0.02 0.06 0.07 0.04 0.02 0.01 0.00 0.00 0.00 0.00 0.00 0.00 0.00 0.00 0.00 0.00 0.00 0.01 0.03 0.04 0.04 0.03 0.01 0.00 0.00 0.03 0.07 0.05 0.01 0.01 0.01 0.03 0.02 0.01 0.04 0.03 0.00 0.00 0.00 0.00 0.00 0.00 0.01 0.00 0.00 0.00 0.00
0.12 0.07 0.03 0.06 0.05 0.03 0.02 0.02 0.01 0.00 0.00 0.00 0.00 0.00 0.00 0.00 0.00 0.00 0.00 0.00 0.00 0.00 0.01 0.01 0.01 0.00 0.00 0.00 0.03 0.02 0.00 0.00 0.00 0.02 0.02 0.01 0.02 0.01 0.00 0.00 0.00 0.00 0.00 0.00 0.01 0.01 0.00 0.00 0.00
0.08 0.04 0.05 0.05 0.03 0.04 0.02 0.01 0.01 0.00 0.00 0.00 0.00 0.00 0.00 0.00 0.00 0.00 0.00 0.00 0.00 0.00 0.00 0.00 0.00 0.00 0.01 0.00 0.01 0.01 0.01 0.02 0.01 0.01 0.02 0.01 0.01 0.01 0.00 0.00 0.00 0.00 0.01 0.00 0.00 0.00 0.00 0.00 0.00
0.07 0.07 0.02 0.03 0.05 0.07 0.03 0.01 0.01 0.00 0.00 0.00 0.00 0.00 0.00 0.00 0.00 0.00 0.00 0.00 0.00 0.00 0.00 0.00 0.00 0.00 0.01 0.01 0.00 0.00 0.02 0.04 0.01 0.01 0.04 0.01 0.00 0.01 0.01 0.00 0.00 0.00 0.00 0.00 0.00 0.00 0.00 0.00 0.00
0.02 0.06 0.05 0.05 0.05 0.04 0.03 0.02 0.01 0.01 0.01 0.01 0.00 0.00 0.00 0.00 0.00 0.00 0.00 0.00 0.00 0.00 0.01 0.01 0.01 0.00 0.01 0.02 0.02 0.01 0.01 0.02 0.01 0.02 0.03 0.01 0.00 0.00 0.01 0.00 0.01 0.02 0.01 0.00 0.00 0.00 0.00 0.00 0.00
0.03 0.03 0.02 0.02 0.02 0.01 0.01 0.01 0.03 0.03 0.04 0.03 0.01 0.00 0.00 0.00 0.00 0.00 0.00 0.00 0.00 0.00 0.00 0.01 0.01 0.02 0.03 0.04 0.05 0.02 0.01 0.01 0.01 0.03 0.04 0.04 0.02 0.02 0.01 0.01 0.01 0.02 0.02 0.02 0.01 0.00 0.00 0.00 0.00
0.01 0.01 0.01 0.03 0.04 0.03 0.02 0.01 0.05 0.05 0.06 0.05 0.02 0.00 0.00 0.00 0.00 0.00 0.00 0.00 0.00 0.00 0.00 0.01 0.01 0.02 0.02 0.02 0.03 0.02 0.02 0.01 0.02 0.02 0.02 0.03 0.03 0.02 0.01 0.01 0.01 0.01 0.01 0.04 0.05 0.02 0.00 0.00 0.00
0.00 0.01 0.02 0.03 0.04 0.07 0.09 0.09 0.11 0.07 0.07 0.06 0.02 0.01 0.00 0.00 0.00 0.00 0.00 0.00 0.00 0.00 0.00 0.00 0.00 0.02 0.01 0.01 0.02 0.03 0.05 0.09 0.15 0.09 0.02 0.04 0.05 0.03 0.01 0.01 0.02 0.02 0.04 0.03 0.05 0.04 0.02 0.01 0.00
0.04 0.07 0.09 0.07 0.04 0.03 0.05 0.06 0.06 0.03 0.01 0.01 0.01 0.01 0.00 0.00 0.00 0.00 0.00 0.00 0.00 0.00 0.00 0.00 0.00 0.01 0.02 0.01 0.02 0.07 0.09 0.13 0.25 0.23 0.11 0.08 0.09 0.05 0.04 0.04 0.04 0.04 0.05 0.04 0.07 0.10 0.05 0.02 0.01
0.11 0.10 0.07 0.05 0.03 0.03 0.02 0.02 0.03 0.02 0.01 0.01 0.01 0.01 0.00 0.00 0.00 0.00 0.00 0.00 0.00 0.00 0.00 0.00 0.01 0.02 0.01 0.01 0.01 0.04 0.07 0.11 0.19 0.14 0.15 0.13 0.13 0.09 0.11 0.09 0.06 0.04 0.04 0.06 0.10 0.16 0.14 0.09 0.05
0.02 0.01 0.01 0.00 0.00 0.01 0.01 0.02 0.02 0.02 0.02 0.02 0.02 0.01 0.01 0.00 0.00 0.00 0.00 0.00 0.00 0.00 0.00 0.00 0.02 0.03 0.02 0.01 0.01 0.02 0.04 0.05 0.07 0.09 0.13 0.15 0.15 0.12 0.12 0.09 0.06 0.05 0.08 0.16 0.14 0.12 0.20 0.19 0.14
0.00 0.01 0.01 0.00 0.00 0.00 0.00 0.00 0.01 0.01 0.02 0.03 0.02 0.02 0.02 0.00 0.00 0.00 0.00 0.00 0.00 0.00 0.00 0.01 0.03 0.03 0.02 0.01 0.01 0.02 0.04 0.07 0.09 0.13 0.15 0.12 0.13 0.13 0.10 0.07 0.07 0.09 0.13 0.15 0.20 0.21 0.21 0.20 0.24
0.00 0.00 0.00 0.00 0.00 0.00 0.00 0.00 0.00 0.00 0.01 0.01 0.02 0.03 0.02 0.01 0.02 0.03 0.03 0.03 0.02 0.01 0.01 0.02 0.04 0.03 0.03 0.01 0.00 0.01 0.01 0.04 0.05 0.07 0.07 0.07 0.11 0.09 0.04 0.09 0.16 0.23 0.29 0.28 0.34 0.29 0.23 0.18 0.17
0.00 0.00 0.00 0.00 0.00 0.00 0.00 0.00 0.00 0.00 0.00 0.01 0.02 0.03 0.02 0.02 0.03 0.06 0.09 0.09 0.10 0.08 0.05 0.06 0.06 0.04 0.02 0.01 0.00 0.00 0.01 0.06 0.05 0.03 0.04 0.07 0.08 0.07 0.06 0.10 0.13 0.16 0.19 0.22 0.27 0.22 0.20 0.18 0.15
0.01 0.02 0.02 0.02 0.01 0.00 0.01 0.01 0.00 0.00 0.00 0.00 0.01 0.01 0.01 0.02 0.03 0.08 0.14 0.17 0.19 0.14 0.09 0.07 0.04 0.02 0.00 0.00 0.00 0.00 0.01 0.03 0.04 0.04 0.04 0.04 0.03 0.03 0.04 0.06 0.14 0.18 0.12 0.16 0.20 0.19 0.22 0.18 0.14
0.03 0.07 0.07 0.04 0.02 0.02 0.02 0.04 0.03 0.01 0.00 0.00 0.00 0.01 0.02 0.03 0.06 0.12 0.20 0.25 0.25 0.17 0.11 0.05 0.01 0.00 0.00 0.00 0.00 0.00 0.00 0.01 0.05 0.11 0.06 0.03 0.02 0.01 0.02 0.03 0.09 0.16 0.14 0.21 0.17 0.06 0.09 0.13 0.14
0.01 0.04 0.08 0.06 0.03 0.04 0.03 0.05 0.03 0.02 0.01 0.01 0.02 0.03 0.07 0.14 0.18 0.20 0.19 0.21 0.22 0.18 0.10 0.04 0.01 0.00 0.00 0.00 0.00 0.01 0.01 0.01 0.02 0.02 0.01 0.00 0.01 0.01 0.01 0.01 0.01 0.04 0.05 0.13 0.19 0.09 0.05 0.05 0.06
0.01 0.02 0.06 0.11 0.08 0.04 0.03 0.04 0.05 0.05 0.03 0.04 0.05 0.07 0.13 0.24 0.35 0.36 0.26 0.19 0.11 0.07 0.04 0.02 0.01 0.00 0.00 0.00 0.00 0.00 0.01 0.01 0.01 0.00 0.00 0.00 0.00 0.00 0.00 0.00 0.00 0.01 0.02 0.05 0.11 0.18 0.18 0.09 0.04
0.02 0.03 0.07 0.09 0.08 0.07 0.06 0.11 0.11 0.11 0.08 0.04 0.06 0.11 0.19 0.29 0.38 0.52 0.54 0.31 0.10 0.04 0.03 0.02 0.00 0.00 0.00 0.00 0.00 0.00 0.00 0.00 0.00 0.00 0.00 0.00 0.00 0.00 0.00 0.00 0.00 0.01 0.03 0.09 0.13 0.09 0.12 0.10 0.07
0.02 0.04 0.07 0.06 0.03 0.06 0.11 0.20 0.25 0.21 0.15 0.07 0.06 0.08 0.12 0.24 0.43 0.59 0.59 0.27 0.12 0.05 0.03 0.01 0.00 0.00 0.00 0.00 0.01 0.00 0.00 0.01 0.00 0.00 0.00 0.00 0.00 0.00 0.01 0.02 0.02 0.03 0.03 0.03 0.01 0.01 0.01 0.02 0.03
0.05 0.07 0.10 0.10 0.06 0.04 0.04 0.11 0.17 0.19 0.18 0.09 0.06 0.04 0.03 0.04 0.09 0.19 0.24 0.15 0.08 0.04 0.02 0.02 0.02 0.02 0.01 0.01 0.02 0.02 0.03 0.02 0.01 0.00 0.00 0.00 0.00 0.00 0.01 0.02 0.03 0.04 0.02 0.01 0.00 0.00 0.00 0.00 0.01

GEFSSGP_prec_meanprecacc_012.txt.gz
Total_Precipitation_Accumulation
0.00 0.03 0.05 0.11 0.16 0.06 0.00 0.00 0.00 0.00 0.00 0.00 0.00 0.00 0.00 0.00 0.01 0.01 0.00 0.00 0.00 0.00 0.00 0.00 0.00 0.00 0.01 0.03 0.06 0.08 0.08 0.05 0.08 0.09 0.10 0.13 0.09 0.06 0.03 0.01 0.01 0.00 0.02 0.06 0.06 0.05 0.02 0.02 0.04
0.00 0.01 0.05 0.15 0.08 0.00 0.00 0.00 0.00 0.00 0.00 0.00 0.00 0.00 0.00 0.00 0.00 0.00 0.00 0.00 0.00 0.00 0.00 0.00 0.00 0.01 0.02 0.06 0.09 0.11 0.11 0.07 0.09 0.09 0.09 0.10 0.10 0.05 0.06 0.08 0.02 0.01 0.01 0.02 0.03 0.02 0.01 0.02 0.05
0.00 0.01 0.10 0.11 0.02 0.00 0.00 0.00 0.00 0.00 0.00 0.00 0.00 0.00 0.00 0.00 0.00 0.00 0.00 0.00 0.00 0.00 0.01 0.02 0.04 0.03 0.04 0.08 0.16 0.18 0.16 0.11 0.05 0.04 0.05 0.05 0.05 0.05 0.12 0.05 0.01 0.01 0.02 0.02 0.03 0.03 0.02 0.04 0.06
0.01 0.04 0.16 0.07 0.01 0.00 0.00 0.00 0.00 0.00 0.00 0.00 0.00 0.00 0.00 0.00 0.00 0.00 0.00 0.00 0.00 0.00 0.02 0.07 0.15 0.10 0.10 0.11 0.20 0.20 0.16 0.15 0.05 0.02 0.02 0.03 0.02 0.05 0.06 0.03 0.02 0.01 0.01 0.02 0.02 0.02 0.01 0.02 0.04
0.04 0.11 0.28 0.42 0.04 0.00 0.00 0.00 0.00 0.00 0.00 0.00 0.00 0.00 0.00 0.00 0.00 0.00 0.00 0.00 0.00 0.01 0.02 0.09 0.22 0.16 0.11 0.11 0.15 0.13 0.14 0.17 0.08 0.02 0.02 0.02 0.03 0.05 0.05 0.05 0.02 0.01 0.01 0.01 0.01 0.00 0.00 0.00 0.01
0.09 0.18 0.35 0.50 0.05 0.00 0.00 0.00 0.00 0.00 0.00 0.00 0.00 0.00 0.00 0.00 0.00 0.00 0.00 0.00 0.01 0.02 0.02 0.06 0.15 0.12 0.08 0.12 0.14 0.14 0.15 0.14 0.05 0.03 0.03 0.03 0.04 0.05 0.05 0.05 0.01 0.00 0.01 0.02 0.02 0.00 0.00 0.00 0.01
0.09 0.14 0.11 0.10 0.02 0.00 0.00 0.00 0.00 0.00 0.00 0.00 0.00 0.00 0.00 0.00 0.00 0.00 0.01 0.03 0.05 0.05 0.04 0.05 0.05 0.04 0.06 0.11 0.11 0.16 0.20 0.13 0.05 0.05 0.05 0.05 0.04 0.04 0.05 0.03 0.00 0.00 0.01 0.02 0.01 0.00 0.00 0.00 0.00
0.09 0.09 0.09 0.09 0.04 0.02 0.01 0.00 0.00 0.00 0.00 0.00 0.00 0.00 0.00 0.00 0.00 0.00 0.03 0.09 0.09 0.05 0.02 0.02 0.01 0.02 0.05 0.06 0.08 0.16 0.21 0.14 0.08 0.07 0.07 0.07 0.04 0.03 0.03 0.01 0.00 0.00 0.00 0.00 0.00 0.00 0.00 0.00 0.00
0.10 0.06 0.05 0.08 0.06 0.04 0.02 0.00 0.00 0.00 0.00 0.00 0.00 0.00 0.00 0.00 0.00 0.00 0.03 0.07 0.11 0.06 0.03 0.01 0.01 0.01 0.03 0.05 0.08 0.12 0.19 0.15 0.09 0.08 0.10 0.07 0.03 0.04 0.01 0.00 0.00 0.00 0.00 0.00 0.00 0.00 0.00 0.00 0.00
0.13 0.05 0.02 0.07 0.08 0.06 0.03 0.01 0.00 0.00 0.00 0.00 0.00 0.00 0.00 0.00 0.00 0.00 0.00 0.01 0.04 0.04 0.04 0.03 0.01 0.00 0.01 0.03 0.07 0.08 0.05 0.05 0.04 0.04 0.04 0.02 0.04 0.04 0.00 0.00 0.00 0.00 0.00 0.00 0.01 0.00 0.00 0.00 0.00
0.12 0.08 0.04 0.06 0.07 0.04 0.03 0.02 0.01 0.00 0.00 0.00 0.00 0.00 0.00 0.00 0.00 0.00 0.00 0.00 0.00 0.00 0.01 0.01 0.01 0.00 0.00 0.00 0.03 0.03 0.02 0.01 0.01 0.02 0.03 0.01 0.02 0.01 0.00 0.00 0.00 0.00 0.00 0.00 0.01 0.01 0.00 0.00 0.00
0.08 0.05 0.05 0.06 0.04 0.07 0.04 0.01 0.01 0.00 0.00 0.00 0.00 0.00 0.00 0.00 0.00 0.00 0.00 0.00 0.00 0.00 0.00 0.00 0.00 0.00 0.01 0.00 0.01 0.02 0.02 0.03 0.01 0.01 0.02 0.01 0.02 0.01 0.00 0.00 0.00 0.00 0.01 0.00 0.00 0.00 0.00 0.00 0.00
0.08 0.08 0.04 0.05 0.08 0.10 0.05 0.02 0.02 0.01 0.00 0.00 0.00 0.00 0.00 0.00 0.00 0.00 0.00 0.00 0.00 0.00 0.00 0.00 0.00 0.00 0.01 0.01 0.00 0.01 0.05 0.06 0.03 0.02 0.04 0.01 0.02 0.02 0.01 0.00 0.01 0.01 0.01 0.00 0.00 0.00 0.00 0.00 0.00
0.04 0.09 0.08 0.07 0.07 0.05 0.04 0.02 0.02 0.02 0.01 0.01 0.00 0.00 0.00 0.00 0.00 0.00 0.00 0.00 0.00 0.00 0.01 0.01 0.01 0.00 0.01 0.02 0.02 0.01 0.02 0.03 0.02 0.03 0.03 0.02 0.02 0.02 0.01 0.00 0.01 0.02 0.01 0.01 0.00 0.00 0.00 0.00 0.00
0.04 0.05 0.03 0.03 0.03 0.02 0.01 0.01 0.04 0.05 0.05 0.03 0.01 0.00 0.00 0.00 0.00 0.00 0.00 0.00 0.00 0.00 0.00 0.01 0.01 0.02 0.03 0.04 0.05 0.02 0.02 0.01 0.02 0.03 0.05 0.04 0.04 0.05 0.04 0.02 0.01 0.02 0.02 0.03 0.03 0.01 0.00 0.00 0.00
0.01 0.01 0.01 0.03 0.04 0.03 0.02 0.01 0.06 0.07 0.08 0.06 0.03 0.01 0.00 0.00 0.00 0.00 0.00 0.00 0.00 0.00 0.00 0.01 0.01 0.02 0.02 0.02 0.03 0.02 0.02 0.02 0.02 0.02 0.03 0.06 0.08 0.09 0.06 0.04 0.05 0.06 0.06 0.08 0.08 0.04 0.01 0.00 0.00
0.01 0.01 0.02 0.03 0.04 0.07 0.09 0.10 0.12 0.09 0.09 0.08 0.04 0.01 0.00 0.00 0.00 0.00 0.00 0.00 0.00 0.00 0.00 0.00 0.00 0.02 0.01 0.01 0.02 0.03 0.05 0.10 0.15 0.11 0.06 0.11 0.14 0.11 0.08 0.11 0.14 0.15 0.15 0.11 0.09 0.07 0.05 0.02 0.01
0.04 0.07 0.09 0.07 0.04 0.03 0.05 0.06 0.06 0.04 0.03 0.03 0.03 0.02 0.01 0.01 0.00 0.00 0.00 0.00 0.00 0.00 0.00 0.00 0.00 0.01 0.02 0.01 0.02 0.07 0.09 0.15 0.28 0.29 0.21 0.20 0.21 0.16 0.12 0.13 0.16 0.19 0.21 0.15 0.14 0.14 0.08 0.05 0.03
0.11 0.10 0.08 0.05 0.03 0.03 0.02 0.02 0.03 0.03 0.02 0.03 0.03 0.02 0.02 0.01 0.01 0.01 0.00 0.00 0.00 0.00 0.00 0.00 0.01 0.02 0.02 0.02 0.02 0.05 0.08 0.14 0.24 0.22 0.25 0.25 0.27 0.21 0.18 0.18 0.16 0.15 0.16 0.18 0.21 0.23 0.19 0.13 0.08
0.02 0.01 0.01 0.00 0.00 0.01 0.01 0.02 0.02 0.03 0.03 0.03 0.03 0.02 0.02 0.01 0.01 0.00 0.00 0.00 0.00 0.00 0.00 0.01 0.03 0.06 0.06 0.06 0.06 0.06 0.07 0.08 0.12 0.15 0.20 0.24 0.26 0.23 0.22 0.21 0.17 0.14 0.16 0.25 0.27 0.26 0.30 0.26 0.21
0.00 0.01 0.01 0.00 0.00 0.00 0.00 0.00 0.01 0.01 0.02 0.03 0.03 0.03 0.03 0.01 0.01 0.01 0.01 0.01 0.01 0.01 0.02 0.05 0.12 0.17 0.20 0.21 0.20 0.15 0.12 0.12 0.13 0.19 0.23 0.22 0.25 0.26 0.22 0.18 0.17 0.17 0.19 0.23 0.34 0.40 0.43 0.39 0.39
0.00 0.00 0.00 0.00 0.00 0.00 0.00 0.00 0.00 0.00 0.01 0.01 0.02 0.03 0.03 0.02 0.02 0.04 0.05 0.04 0.04 0.06 0.13 0.25 0.39 0.46 0.45 0.38 0.27 0.20 0.14 0.14 0.14 0.16 0.15 0.14 0.18 0.15 0.09 0.13 0.20 0.26 0.35 0.38 0.50 0.52 0.52 0.48 0.42
0.00 0.00 0.00 0.00 0.00 0.00 0.00 0.00 0.00 0.00 0.00 0.01 0.02 0.03 0.03 0.03 0.04 0.10 0.14 0.15 0.21 0.30 0.46 0.64 0.75 0.73 0.61 0.42 0.28 0.22 0.16 0.17 0.15 0.12 0.12 0.13 0.13 0.11 0.08 0.11 0.15 0.18 0.22 0.28 0.35 0.33 0.39 0.44 0.45
0.01 0.02 0.02 0.02 0.01 0.00 0.01 0.02 0.01 0.00 0.00 0.00 0.01 0.01 0.02 0.04 0.07 0.18 0.29 0.39 0.51 0.61 0.73 0.84 0.85 0.78 0.58 0.36 0.23 0.17 0.14 0.13 0.12 0.12 0.13 0.11 0.08 0.07 0.06 0.08 0.15 0.19 0.13 0.17 0.22 0.22 0.30 0.34 0.38
0.03 0.07 0.07 0.04 0.03 0.02 0.03 0.08 0.05 0.02 0.01 0.01 0.01 0.03 0.05 0.08 0.16 0.32 0.47 0.60 0.69 0.77 0.82 0.80 0.71 0.60 0.43 0.28 0.19 0.14 0.11 0.09 0.11 0.16 0.10 0.06 0.04 0.03 0.03 0.03 0.10 0.16 0.15 0.21 0.17 0.07 0.12 0.23 0.29
0.01 0.04 0.09 0.08 0.04 0.04 0.05 0.10 0.07 0.05 0.04 0.04 0.05 0.08 0.15 0.27 0.35 0.47 0.53 0.59 0.64 0.72 0.77 0.74 0.61 0.49 0.34 0.22 0.16 0.13 0.10 0.06 0.04 0.04 0.02 0.01 0.02 0.01 0.01 0.01 0.02 0.04 0.05 0.13 0.19 0.10 0.06 0.07 0.13
0.01 0.02 0.08 0.15 0.11 0.08 0.06 0.11 0.11 0.08 0.07 0.08 0.09 0.12 0.22 0.37 0.53 0.65 0.64 0.60 0.50 0.48 0.50 0.48 0.38 0.32 0.26 0.20 0.17 0.13 0.09 0.05 0.03 0.01 0.01 0.00 0.00 0.00 0.00 0.00 0.00 0.01 0.02 0.05 0.11 0.18 0.18 0.09 0.07
0.02 0.05 0.11 0.17 0.15 0.13 0.13 0.19 0.18 0.14 0.11 0.07 0.09 0.14 0.25 0.39 0.51 0.73 0.87 0.76 0.50 0.32 0.28 0.25 0.23 0.21 0.20 0.18 0.16 0.13 0.08 0.05 0.04 0.03 0.01 0.01 0.00 0.00 0.00 0.00 0.00 0.01 0.03 0.09 0.13 0.09 0.12 0.11 0.11
0.03 0.08 0.13 0.15 0.16 0.20 0.23 0.29 0.29 0.22 0.18 0.12 0.10 0.11 0.16 0.30 0.50 0.70 0.77 0.59 0.42 0.26 0.21 0.19 0.18 0.21 0.21 0.17 0.17 0.13 0.08 0.07 0.05 0.04 0.02 0.01 0.01 0.00 0.01 0.02 0.02 0.03 0.04 0.03 0.01 0.01 0.01 0.03 0.05
0.08 0.13 0.22 0.24 0.22 0.19 0.16 0.21 0.19 0.20 0.21 0.14 0.11 0.07 0.06 0.05 0.11 0.22 0.30 0.23 0.18 0.15 0.13 0.17 0.22 0.24 0.18 0.14 0.14 0.12 0.09 0.07 0.05 0.04 0.03 0.02 0.02 0.02 0.02 0.02 0.03 0.04 0.02 0.02 0.01 0.01 0.00 0.00 0.01

GEFSSGP_prec_meanprecacc_018.txt.gz
Total_Precipitation_Accumulation
0.00 0.03 0.05 0.11 0.16 0.06 0.00 0.00 0.00 0.00 0.00 0.00 0.00 0.00 0.00 0.00 0.01 0.02 0.00 0.00 0.00 0.00 0.00 0.01 0.01 0.01 0.01 0.04 0.08 0.10 0.08 0.05 0.08 0.10 0.10 0.13 0.09 0.07 0.03 0.02 0.01 0.00 0.02 0.06 0.07 0.07 0.06 0.08 0.11
0.00 0.01 0.05 0.15 0.08 0.00 0.00 0.00 0.00 0.00 0.00 0.00 0.00 0.00 0.00 0.00 0.00 0.00 0.00 0.00 0.00 0.00 0.00 0.00 0.01 0.01 0.03 0.07 0.12 0.13 0.11 0.07 0.10 0.10 0.10 0.11 0.10 0.05 0.07 0.08 0.03 0.01 0.02 0.03 0.04 0.03 0.05 0.10 0.13
0.00 0.01 0.10 0.11 0.02 0.00 0.00 0.00 0.00 0.00 0.00 0.00 0.00 0.00 0.00 0.00 0.00 0.00 0.00 0.00 0.00 0.00 0.01 0.02 0.05 0.03 0.06 0.11 0.22 0.22 0.18 0.12 0.06 0.06 0.06 0.06 0.05 0.05 0.12 0.05 0.01 0.02 0.02 0.03 0.04 0.04 0.04 0.10 0.14
0.01 0.04 0.16 0.07 0.01 0.00 0.00 0.00 0.00 0.00 0.00 0.00 0.00 0.00 0.00 0.00 0.00 0.00 0.00 0.00 0.00 0.00 0.02 0.07 0.17 0.13 0.13 0.17 0.30 0.26 0.20 0.18 0.07 0.05 0.04 0.05 0.03 0.05 0.07 0.04 0.04 0.02 0.01 0.02 0.03 0.04 0.04 0.08 0.12
0.04 0.11 0.28 0.42 0.04 0.00 0.00 0.00 0.00 0.00 0.00 0.00 0.00 0.00 0.00 0.00 0.00 0.00 0.00 0.00 0.00 0.01 0.02 0.10 0.25 0.21 0.16 0.19 0.27 0.23 0.20 0.21 0.10 0.04 0.04 0.03 0.03 0.05 0.06 0.09 0.05 0.02 0.01 0.01 0.01 0.01 0.02 0.04 0.07
0.09 0.18 0.35 0.50 0.05 0.00 0.00 0.00 0.00 0.00 0.00 0.00 0.00 0.00 0.00 0.00 0.00 0.00 0.00 0.00 0.01 0.02 0.02 0.06 0.18 0.17 0.15 0.20 0.26 0.27 0.22 0.18 0.07 0.05 0.05 0.04 0.05 0.06 0.07 0.08 0.03 0.01 0.01 0.02 0.02 0.00 0.01 0.02 0.05
0.09 0.14 0.11 0.10 0.02 0.00 0.00 0.00 0.00 0.00 0.00 0.00 0.00 0.00 0.00 0.00 0.00 0.00 0.01 0.03 0.05 0.05 0.04 0.05 0.06 0.06 0.10 0.20 0.23 0.31 0.34 0.20 0.08 0.06 0.06 0.06 0.05 0.05 0.06 0.04 0.01 0.01 0.01 0.02 0.01 0.00 0.00 0.01 0.04
0.09 0.09 0.09 0.09 0.04 0.02 0.01 0.00 0.00 0.00 0.00 0.00 0.00 0.00 0.00 0.00 0.00 0.00 0.03 0.09 0.09 0.05 0.02 0.02 0.02 0.03 0.08 0.13 0.23 0.39 0.46 0.30 0.13 0.09 0.08 0.08 0.05 0.04 0.04 0.01 0.00 0.00 0.00 0.00 0.00 0.00 0.00 0.01 0.03
0.10 0.06 0.05 0.08 0.06 0.04 0.02 0.00 0.00 0.00 0.00 0.00 0.00 0.00 0.00 0.00 0.00 0.00 0.03 0.07 0.11 0.06 0.03 0.01 0.01 0.02 0.05 0.11 0.20 0.34 0.46 0.39 0.17 0.12 0.12 0.08 0.03 0.04 0.02 0.00 0.00 0.00 0.00 0.00 0.00 0.00 0.00 0.00 0.02
0.13 0.05 0.02 0.07 0.08 0.06 0.03 0.01 0.00 0.00 0.00 0.00 0.00 0.00 0.00 0.00 0.00 0.00 0.00 0.01 0.04 0.04 0.04 0.03 0.01 0.01 0.01 0.04 0.14 0.23 0.21 0.22 0.12 0.09 0.06 0.04 0.05 0.04 0.00 0.00 0.00 0.00 0.00 0.00 0.01 0.00 0.00 0.00 0.00
0.12 0.08 0.04 0.07 0.07 0.04 0.03 0.02 0.01 0.00 0.00 0.00 0.00 0.00 0.00 0.00 0.00 0.00 0.00 0.00 0.00 0.00 0.01 0.01 0.01 0.00 0.01 0.02 0.07 0.11 0.14 0.14 0.09 0.05 0.05 0.03 0.02 0.01 0.00 0.00 0.00 0.01 0.00 0.00 0.01 0.01 0.00 0.00 0.00
0.09 0.05 0.05 0.06 0.04 0.07 0.04 0.02 0.01 0.00 0.00 0.00 0.00 0.00 0.00 0.00 0.00 0.00 0.00 0.00 0.00 0.00 0.00 0.00 0.00 0.00 0.01 0.01 0.04 0.08 0.13 0.13 0.09 0.04 0.02 0.01 0.02 0.01 0.00 0.00 0.00 0.01 0.01 0.00 0.00 0.00 0.00 0.00 0.00
0.10 0.10 0.05 0.06 0.08 0.10 0.06 0.02 0.02 0.01 0.01 0.00 0.00 0.00 0.00 0.00 0.00 0.00 0.00 0.00 0.00 0.00 0.00 0.00 0.00 0.00 0.01 0.01 0.03 0.05 0.14 0.18 0.10 0.06 0.05 0.01 0.02 0.02 0.01 0.00 0.01 0.01 0.01 0.00 0.00 0.00 0.00 0.00 0.00
0.05 0.11 0.10 0.09 0.09 0.06 0.04 0.03 0.03 0.03 0.02 0.01 0.00 0.00 0.00 0.00 0.00 0.00 0.00 0.00 0.00 0.00 0.01 0.01 0.01 0.00 0.01 0.02 0.02 0.04 0.08 0.12 0.10 0.07 0.05 0.02 0.02 0.02 0.02 0.00 0.01 0.02 0.01 0.01 0.00 0.00 0.00 0.00 0.00
0.05 0.06 0.04 0.03 0.03 0.02 0.01 0.01 0.04 0.05 0.05 0.03 0.01 0.00 0.00 0.00 0.00 0.00 0.00 0.00 0.00 0.00 0.00 0.01 0.01 0.02 0.03 0.04 0.05 0.04 0.05 0.06 0.08 0.10 0.09 0.06 0.06 0.07 0.05 0.02 0.01 0.02 0.02 0.03 0.03 0.01 0.00 0.00 0.01
0.02 0.01 0.01 0.04 0.04 0.04 0.02 0.01 0.06 0.07 0.08 0.06 0.03 0.01 0.01 0.01 0.01 0.00 0.01 0.00 0.00 0.00 0.00 0.01 0.01 0.02 0.02 0.02 0.03 0.04 0.04 0.06 0.11 0.13 0.10 0.09 0.13 0.13 0.09 0.06 0.05 0.06 0.06 0.08 0.08 0.04 0.02 0.01 0.01
0.01 0.01 0.02 0.03 0.04 0.07 0.09 0.10 0.12 0.09 0.09 0.08 0.05 0.02 0.01 0.02 0.04 0.04 0.02 0.01 0.00 0.00 0.00 0.00 0.00 0.02 0.01 0.01 0.03 0.05 0.08 0.16 0.26 0.19 0.11 0.20 0.26 0.21 0.18 0.21 0.19 0.16 0.15 0.11 0.09 0.07 0.05 0.04 0.02
0.05 0.08 0.09 0.07 0.04 0.03 0.05 0.06 0.06 0.04 0.03 0.03 0.03 0.02 0.01 0.02 0.05 0.07 0.07 0.05 0.02 0.00 0.00 0.00 0.00 0.02 0.02 0.04 0.06 0.10 0.12 0.18 0.33 0.34 0.30 0.38 0.44 0.39 0.35 0.33 0.27 0.23 0.25 0.19 0.17 0.17 0.11 0.08 0.05
0.12 0.11 0.08 0.05 0.03 0.03 0.02 0.02 0.03 0.03 0.02 0.03 0.03 0.02 0.02 0.02 0.03 0.05 0.07 0.08 0.06 0.02 0.01 0.00 0.01 0.03 0.04 0.06 0.09 0.11 0.14 0.19 0.29 0.30 0.38 0.47 0.53 0.49 0.47 0.47 0.40 0.31 0.28 0.28 0.30 0.32 0.24 0.16 0.09
0.03 0.01 0.01 0.00 0.00 0.01 0.01 0.02 0.02 0.03 0.03 0.03 0.03 0.02 0.02 0.02 0.02 0.03 0.04 0.06 0.06 0.03 0.01 0.01 0.04 0.10 0.12 0.16 0.24 0.25 0.24 0.20 0.22 0.26 0.33 0.41 0.44 0.42 0.43 0.48 0.47 0.39 0.36 0.42 0.38 0.36 0.39 0.33 0.22
0.00 0.01 0.01 0.00 0.00 0.00 0.00 0.00 0.01 0.01 0.02 0.03 0.03 0.03 0.03 0.01 0.02 0.02 0.02 0.03 0.05 0.04 0.03 0.05 0.14 0.26 0.38 0.44 0.50 0.47 0.40 0.33 0.29 0.32 0.38 0.39 0.41 0.42 0.37 0.36 0.37 0.35 0.34 0.38 0.46 0.49 0.54 0.49 0.44
0.00 0.00 0.01 0.00 0.00 0.00 0.00 0.00 0.00 0.00 0.01 0.01 0.02 0.03 0.03 0.02 0.03 0.04 0.05 0.05 0.06 0.08 0.15 0.27 0.48 0.70 0.84 0.82 0.69 0.54 0.39 0.34 0.33 0.35 0.33 0.30 0.32 0.28 0.20 0.26 0.30 0.34 0.41 0.46 0.57 0.55 0.58 0.59 0.51
0.00 0.00 0.00 0.00 0.00 0.00 0.00 0.00 0.00 0.00 0.00 0.01 0.02 0.03 0.03 0.03 0.05 0.11 0.15 0.16 0.23 0.33 0.50 0.74 0.99 1.19 1.23 1.04 0.80 0.61 0.45 0.40 0.36 0.31 0.31 0.29 0.26 0.24 0.18 0.20 0.21 0.22 0.25 0.33 0.39 0.35 0.42 0.49 0.54
0.01 0.02 0.02 0.02 0.02 0.01 0.01 0.02 0.01 0.01 0.01 0.00 0.01 0.01 0.02 0.04 0.09 0.20 0.33 0.44 0.58 0.69 0.85 1.05 1.19 1.30 1.22 1.06 0.89 0.74 0.61 0.48 0.37 0.33 0.30 0.24 0.19 0.16 0.15 0.14 0.21 0.24 0.17 0.19 0.24 0.24 0.31 0.37 0.41
0.03 0.07 0.07 0.05 0.03 0.02 0.04 0.09 0.06 0.02 0.01 0.01 0.01 0.03 0.06 0.09 0.18 0.36 0.53 0.67 0.78 0.89 1.01 1.04 1.03 1.05 1.04 0.96 0.87 0.77 0.66 0.52 0.42 0.40 0.28 0.18 0.13 0.11 0.10 0.09 0.14 0.19 0.17 0.22 0.18 0.08 0.13 0.24 0.30
0.01 0.04 0.10 0.09 0.06 0.06 0.08 0.16 0.10 0.06 0.04 0.04 0.05 0.09 0.17 0.29 0.40 0.51 0.58 0.66 0.73 0.84 0.94 0.95 0.91 0.88 0.83 0.74 0.66 0.61 0.56 0.47 0.36 0.27 0.19 0.13 0.10 0.08 0.06 0.05 0.04 0.06 0.06 0.13 0.19 0.10 0.06 0.08 0.13
0.01 0.03 0.09 0.18 0.13 0.09 0.10 0.19 0.17 0.10 0.08 0.09 0.11 0.15 0.25 0.40 0.56 0.68 0.67 0.65 0.57 0.59 0.69 0.74 0.69 0.65 0.61 0.57 0.56 0.55 0.48 0.39 0.29 0.19 0.13 0.09 0.06 0.04 0.02 0.02 0.01 0.01 0.02 0.05 0.11 0.18 0.18 0.09 0.07
0.02 0.05 0.13 0.21 0.19 0.17 0.18 0.26 0.24 0.19 0.15 0.10 0.13 0.20 0.31 0.44 0.55 0.75 0.92 0.83 0.59 0.43 0.41 0.41 0.43 0.46 0.49 0.51 0.51 0.48 0.38 0.29 0.22 0.17 0.11 0.08 0.05 0.02 0.02 0.01 0.01 0.01 0.03 0.09 0.13 0.09 0.12 0.11 0.12
0.04 0.10 0.15 0.18 0.20 0.27 0.40 0.48 0.39 0.28 0.22 0.15 0.15 0.18 0.23 0.37 0.57 0.75 0.84 0.68 0.56 0.41 0.33 0.31 0.32 0.38 0.44 0.43 0.46 0.38 0.29 0.23 0.19 0.15 0.12 0.07 0.04 0.02 0.02 0.02 0.02 0.03 0.04 0.03 0.02 0.01 0.01 0.03 0.05
0.11 0.18 0.26 0.31 0.34 0.34 0.39 0.43 0.32 0.30 0.30 0.20 0.19 0.19 0.16 0.16 0.21 0.30 0.39 0.39 0.35 0.29 0.25 0.29 0.37 0.43 0.39 0.35 0.35 0.30 0.25 0.20 0.17 0.14 0.10 0.06 0.03 0.03 0.02 0.02 0.03 0.04 0.03 0.02 0.01 0.01 0.01 0.01 0.01

GEFSSGP_prec_meanprecacc_024.txt.gz
Total_Precipitation_Accumulation
0.01 0.03 0.05 0.12 0.24 0.11 0.00 0.00 0.00 0.00 0.00 0.00 0.00 0.00 0.00 0.00 0.01 0.11 0.03 0.00 0.00 0.00 0.00 0.01 0.02 0.01 0.02 0.04 0.08 0.10 0.09 0.06 0.09 0.11 0.12 0.14 0.10 0.07 0.03 0.02 0.01 0.01 0.03 0.07 0.07 0.08 0.07 0.11 0.15
0.01 0.02 0.05 0.19 0.16 0.01 0.00 0.00 0.00 0.00 0.00 0.00 0.00 0.00 0.00 0.00 0.00 0.00 0.00 0.00 0.00 0.00 0.00 0.01 0.01 0.02 0.04 0.07 0.12 0.14 0.12 0.08 0.11 0.11 0.11 0.12 0.10 0.06 0.07 0.08 0.03 0.01 0.02 0.03 0.04 0.04 0.06 0.12 0.16
0.00 0.01 0.11 0.15 0.04 0.00 0.00 0.00 0.00 0.00 0.00 0.00 0.00 0.00 0.00 0.00 0.00 0.00 0.00 0.00 0.00 0.00 0.01 0.02 0.05 0.04 0.06 0.12 0.24 0.23 0.19 0.13 0.07 0.07 0.07 0.07 0.06 0.06 0.13 0.06 0.02 0.02 0.02 0.03 0.04 0.04 0.05 0.11 0.16
0.01 0.04 0.17 0.08 0.01 0.00 0.00 0.00 0.00 0.00 0.00 0.00 0.00 0.00 0.00 0.00 0.00 0.00 0.00 0.00 0.00 0.00 0.02 0.08 0.17 0.13 0.13 0.19 0.33 0.28 0.22 0.19 0.08 0.06 0.05 0.05 0.03 0.06 0.08 0.05 0.05 0.02 0.02 0.02 0.03 0.04 0.04 0.09 0.14
0.04 0.11 0.29 0.43 0.04 0.00 0.00 0.00 0.00 0.00 0.00 0.00 0.00 0.00 0.00 0.00 0.00 0.00 0.00 0.00 0.00 0.01 0.02 0.10 0.25 0.21 0.17 0.21 0.32 0.27 0.23 0.24 0.12 0.06 0.05 0.04 0.04 0.06 0.08 0.10 0.06 0.02 0.01 0.01 0.01 0.02 0.03 0.06 0.10
0.09 0.18 0.38 0.53 0.05 0.00 0.00 0.00 0.00 0.00 0.00 0.00 0.00 0.00 0.00 0.00 0.00 0.00 0.00 0.00 0.01 0.02 0.02 0.06 0.18 0.17 0.16 0.23 0.31 0.34 0.27 0.22 0.10 0.07 0.06 0.05 0.05 0.07 0.10 0.10 0.05 0.02 0.01 0.02 0.02 0.01 0.01 0.03 0.07
0.10 0.16 0.15 0.12 0.02 0.00 0.00 0.00 0.00 0.00 0.00 0.00 0.00 0.00 0.00 0.00 0.00 0.00 0.01 0.03 0.05 0.05 0.04 0.05 0.06 0.06 0.11 0.22 0.26 0.41 0.44 0.27 0.12 0.09 0.08 0.07 0.05 0.05 0.07 0.05 0.02 0.01 0.01 0.02 0.01 0.00 0.00 0.02 0.04
0.09 0.09 0.10 0.09 0.04 0.03 0.01 0.00 0.00 0.00 0.00 0.00 0.00 0.00 0.00 0.00 0.00 0.00 0.03 0.09 0.09 0.05 0.02 0.02 0.02 0.03 0.09 0.14 0.24 0.45 0.58 0.43 0.19 0.12 0.09 0.09 0.05 0.04 0.04 0.02 0.01 0.01 0.00 0.00 0.00 0.00 0.00 0.01 0.03
0.10 0.08 0.08 0.09 0.07 0.06 0.02 0.00 0.00 0.00 0.00 0.00 0.00 0.00 0.00 0.00 0.00 0.00 0.03 0.07 0.11 0.06 0.03 0.01 0.01 0.02 0.07 0.14 0.22 0.37 0.53 0.49 0.23 0.14 0.13 0.09 0.05 0.06 0.02 0.00 0.00 0.00 0.00 0.00 0.00 0.00 0.00 0.00 0.02
0.13 0.08 0.06 0.09 0.09 0.07 0.03 0.01 0.01 0.00 0.00 0.00 0.00 0.00 0.00 0.00 0.00 0.00 0.00 0.01 0.04 0.04 0.04 0.03 0.01 0.01 0.03 0.07 0.20 0.28 0.30 0.28 0.18 0.17 0.09 0.10 0.16 0.11 0.02 0.00 0.00 0.00 0.00 0.00 0.01 0.00 0.00 0.00 0.00
0.12 0.08 0.05 0.07 0.07 0.04 0.03 0.02 0.01 0.00 0.00 0.01 0.00 0.00 0.00 0.00 0.00 0.00 0.00 0.00 0.00 0.00 0.01 0.01 0.01 0.00 0.01 0.06 0.15 0.21 0.31 0.31 0.33 0.27 0.14 0.12 0.11 0.05 0.00 0.00 0.00 0.01 0.00 0.00 0.01 0.01 0.00 0.00 0.00
0.09 0.05 0.05 0.06 0.04 0.07 0.04 0.02 0.02 0.01 0.01 0.01 0.00 0.00 0.00 0.00 0.00 0.00 0.00 0.00 0.00 0.00 0.00 0.00 0.00 0.00 0.01 0.03 0.10 0.17 0.25 0.34 0.35 0.19 0.05 0.03 0.05 0.04 0.01 0.00 0.01 0.01 0.01 0.00 0.00 0.00 0.00 0.00 0.00
0.10 0.10 0.05 0.06 0.08 0.10 0.06 0.02 0.03 0.04 0.02 0.00 0.00 0.00 0.00 0.00 0.00 0.00 0.00 0.00 0.00 0.00 0.00 0.00 0.00 0.00 0.01 0.03 0.07 0.09 0.21 0.29 0.22 0.17 0.06 0.03 0.02 0.02 0.01 0.00 0.01 0.01 0.01 0.00 0.00 0.00 0.00 0.00 0.00
0.05 0.11 0.11 0.09 0.09 0.06 0.04 0.03 0.05 0.07 0.04 0.01 0.00 0.00 0.01 0.01 0.01 0.01 0.01 0.00 0.00 0.00 0.01 0.01 0.01 0.00 0.01 0.02 0.03 0.07 0.12 0.17 0.17 0.13 0.06 0.04 0.03 0.02 0.02 0.00 0.01 0.02 0.01 0.01 0.00 0.00 0.00 0.00 0.00
0.05 0.06 0.04 0.03 0.03 0.02 0.01 0.03 0.07 0.08 0.06 0.04 0.01 0.01 0.01 0.02 0.02 0.02 0.02 0.01 0.01 0.00 0.01 0.02 0.01 0.02 0.03 0.04 0.05 0.05 0.06 0.08 0.10 0.12 0.10 0.09 0.08 0.07 0.05 0.02 0.01 0.02 0.02 0.03 0.03 0.01 0.00 0.00 0.01
0.02 0.01 0.02 0.04 0.05 0.04 0.02 0.03 0.10 0.11 0.09 0.07 0.03 0.01 0.01 0.02 0.04 0.05 0.05 0.03 0.01 0.01 0.01 0.01 0.01 0.02 0.02 0.02 0.04 0.04 0.04 0.08 0.14 0.16 0.11 0.11 0.14 0.13 0.09 0.06 0.05 0.06 0.06 0.08 0.08 0.04 0.02 0.01 0.01
0.01 0.01 0.03 0.05 0.06 0.09 0.10 0.12 0.13 0.10 0.10 0.08 0.05 0.02 0.01 0.03 0.06 0.09 0.10 0.08 0.04 0.02 0.01 0.01 0.01 0.02 0.01 0.01 0.03 0.05 0.09 0.19 0.29 0.21 0.12 0.20 0.27 0.21 0.20 0.22 0.19 0.16 0.15 0.11 0.09 0.07 0.06 0.04 0.03
0.06 0.08 0.10 0.09 0.08 0.07 0.07 0.07 0.07 0.04 0.03 0.03 0.03 0.02 0.01 0.02 0.06 0.11 0.13 0.12 0.09 0.05 0.03 0.01 0.01 0.02 0.03 0.05 0.08 0.14 0.16 0.22 0.35 0.36 0.32 0.39 0.45 0.40 0.39 0.35 0.27 0.23 0.25 0.20 0.17 0.19 0.13 0.10 0.06
0.12 0.11 0.08 0.05 0.04 0.04 0.03 0.03 0.04 0.03 0.02 0.03 0.03 0.02 0.02 0.02 0.03 0.06 0.08 0.11 0.09 0.05 0.03 0.02 0.02 0.04 0.05 0.09 0.12 0.15 0.19 0.25 0.36 0.35 0.42 0.51 0.56 0.52 0.51 0.51 0.43 0.35 0.31 0.30 0.32 0.40 0.34 0.24 0.11
0.03 0.01 0.01 0.01 0.01 0.01 0.01 0.02 0.02 0.03 0.03 0.03 0.03 0.02 0.02 0.02 0.02 0.03 0.05 0.06 0.06 0.04 0.02 0.02 0.06 0.12 0.15 0.19 0.26 0.29 0.34 0.32 0.35 0.38 0.42 0.47 0.48 0.45 0.47 0.56 0.59 0.50 0.45 0.49 0.46 0.50 0.57 0.47 0.28
0.01 0.01 0.01 0.00 0.00 0.00 0.00 0.01 0.01 0.01 0.02 0.03 0.03 0.03 0.03 0.01 0.02 0.02 0.03 0.04 0.05 0.04 0.05 0.07 0.16 0.30 0.45 0.56 0.68 0.72 0.68 0.57 0.45 0.43 0.47 0.46 0.47 0.48 0.46 0.50 0.53 0.47 0.47 0.51 0.60 0.66 0.74 0.64 0.52
0.00 0.00 0.01 0.00 0.00 0.00 0.00 0.00 0.00 0.01 0.02 0.03 0.03 0.04 0.03 0.02 0.03 0.04 0.06 0.06 0.06 0.08 0.15 0.28 0.49 0.75 0.96 1.08 1.16 1.14 0.93 0.70 0.53 0.48 0.44 0.38 0.39 0.37 0.32 0.39 0.45 0.50 0.58 0.63 0.72 0.65 0.73 0.74 0.60
0.00 0.00 0.00 0.00 0.00 0.00 0.00 0.01 0.02 0.05 0.09 0.09 0.06 0.04 0.03 0.03 0.05 0.11 0.15 0.17 0.24 0.33 0.50 0.76 1.02 1.25 1.38 1.37 1.37 1.37 1.27 1.10 0.87 0.66 0.54 0.45 0.40 0.38 0.34 0.36 0.38 0.38 0.43 0.50 0.53 0.45 0.54 0.61 0.63
0.01 0.02 0.02 0.02 0.02 0.01 0.01 0.03 0.09 0.12 0.10 0.09 0.06 0.03 0.03 0.04 0.09 0.20 0.33 0.45 0.60 0.70 0.87 1.07 1.23 1.38 1.36 1.33 1.32 1.34 1.36 1.28 1.09 0.90 0.72 0.54 0.40 0.36 0.36 0.35 0.41 0.43 0.35 0.36 0.38 0.33 0.39 0.44 0.48
0.03 0.07 0.07 0.05 0.04 0.04 0.06 0.15 0.18 0.13 0.08 0.09 0.06 0.04 0.06 0.10 0.19 0.36 0.53 0.68 0.80 0.91 1.03 1.07 1.08 1.13 1.16 1.14 1.14 1.15 1.12 1.07 0.99 0.90 0.69 0.49 0.38 0.34 0.34 0.31 0.34 0.36 0.31 0.34 0.25 0.14 0.19 0.29 0.36
0.01 0.04 0.10 0.09 0.07 0.10 0.13 0.31 0.31 0.20 0.14 0.12 0.08 0.11 0.18 0.31 0.42 0.53 0.61 0.69 0.76 0.88 0.98 1.00 0.97 0.95 0.91 0.85 0.82 0.82 0.81 0.77 0.71 0.60 0.46 0.35 0.30 0.26 0.23 0.22 0.18 0.16 0.13 0.19 0.23 0.14 0.10 0.11 0.17
0.01 0.03 0.09 0.18 0.13 0.11 0.17 0.37 0.37 0.23 0.16 0.14 0.14 0.17 0.29 0.46 0.63 0.74 0.73 0.70 0.61 0.64 0.75 0.80 0.75 0.71 0.68 0.65 0.65 0.66 0.61 0.54 0.48 0.39 0.31 0.26 0.23 0.20 0.18 0.15 0.10 0.07 0.06 0.08 0.14 0.21 0.20 0.11 0.08
0.02 0.05 0.13 0.23 0.22 0.22 0.27 0.40 0.35 0.25 0.21 0.15 0.17 0.25 0.40 0.58 0.69 0.88 1.02 0.92 0.66 0.49 0.47 0.48 0.50 0.53 0.56 0.57 0.58 0.55 0.46 0.40 0.36 0.32 0.26 0.23 0.21 0.18 0.16 0.11 0.06 0.05 0.06 0.11 0.14 0.10 0.13 0.12 0.12
0.04 0.10 0.16 0.20 0.23 0.33 0.51 0.60 0.50 0.39 0.32 0.25 0.25 0.32 0.41 0.62 0.85 0.98 1.01 0.83 0.69 0.50 0.41 0.41 0.41 0.45 0.50 0.50 0.52 0.45 0.37 0.32 0.28 0.25 0.22 0.18 0.16 0.14 0.12 0.08 0.07 0.07 0.06 0.04 0.03 0.02 0.02 0.03 0.06
0.11 0.19 0.27 0.35 0.38 0.40 0.50 0.57 0.46 0.47 0.49 0.39 0.41 0.49 0.51 0.54 0.56 0.57 0.65 0.66 0.61 0.50 0.44 0.49 0.57 0.58 0.51 0.46 0.44 0.39 0.33 0.29 0.28 0.25 0.20 0.16 0.14 0.12 0.08 0.07 0.07 0.07 0.05 0.03 0.02 0.02 0.01 0.02 0.02

GEFSSGP_prec_meanprecacc_030.txt.gz
Total_Precipitation_Accumulation
0.01 0.07 0.11 0.17 0.29 0.13 0.00 0.00 0.00 0.00 0.00 0.00 0.00 0.00 0.00 0.00 0.01 0.13 0.04 0.00 0.00 0.00 0.00 0.01 0.02 0.01 0.02 0.04 0.08 0.10 0.09 0.06 0.09 0.12 0.12 0.14 0.10 0.07 0.04 0.02 0.02 0.01 0.03 0.07 0.07 0.08 0.08 0.12 0.16
0.02 0.05 0.11 0.28 0.21 0.01 0.00 0.00 0.00 0.00 0.00 0.00 0.00 0.00 0.00 0.00 0.00 0.00 0.00 0.01 0.00 0.00 0.00 0.01 0.01 0.02 0.04 0.07 0.12 0.14 0.12 0.09 0.11 0.12 0.12 0.12 0.11 0.06 0.07 0.09 0.03 0.02 0.02 0.03 0.04 0.04 0.07 0.13 0.18
0.01 0.03 0.15 0.22 0.06 0.00 0.00 0.00 0.00 0.00 0.00 0.00 0.00 0.00 0.00 0.00 0.00 0.00 0.01 0.01 0.00 0.00 0.01 0.02 0.05 0.04 0.06 0.12 0.24 0.24 0.19 0.14 0.07 0.07 0.07 0.07 0.06 0.06 0.13 0.06 0.02 0.02 0.03 0.03 0.04 0.04 0.05 0.12 0.18
0.02 0.06 0.24 0.12 0.01 0.00 0.00 0.00 0.00 0.00 0.00 0.00 0.00 0.00 0.00 0.00 0.00 0.00 0.00 0.00 0.00 0.00 0.02 0.08 0.17 0.13 0.13 0.19 0.34 0.29 0.22 0.20 0.09 0.06 0.05 0.05 0.03 0.06 0.08 0.05 0.05 0.02 0.02 0.03 0.03 0.05 0.05 0.11 0.16
0.05 0.14 0.35 0.46 0.04 0.00 0.00 0.00 0.00 0.00 0.00 0.00 0.00 0.00 0.00 0.00 0.00 0.00 0.00 0.00 0.00 0.01 0.02 0.10 0.26 0.21 0.17 0.21 0.32 0.28 0.24 0.24 0.12 0.06 0.06 0.05 0.04 0.07 0.08 0.11 0.06 0.02 0.01 0.02 0.02 0.02 0.04 0.07 0.12
0.10 0.25 0.49 0.58 0.06 0.00 0.00 0.00 0.00 0.00 0.00 0.00 0.00 0.00 0.00 0.00 0.00 0.00 0.00 0.00 0.01 0.02 0.02 0.06 0.18 0.17 0.16 0.23 0.32 0.35 0.28 0.23 0.11 0.07 0.07 0.05 0.06 0.08 0.10 0.10 0.05 0.02 0.01 0.02 0.02 0.01 0.01 0.03 0.08
0.10 0.26 0.32 0.20 0.04 0.01 0.00 0.00 0.00 0.00 0.00 0.00 0.00 0.00 0.00 0.00 0.00 0.00 0.01 0.04 0.06 0.05 0.04 0.05 0.06 0.06 0.11 0.22 0.26 0.42 0.45 0.28 0.13 0.10 0.08 0.07 0.05 0.06 0.07 0.05 0.02 0.01 0.01 0.02 0.01 0.00 0.00 0.02 0.05
0.10 0.16 0.22 0.18 0.09 0.06 0.02 0.00 0.00 0.00 0.00 0.00 0.00 0.00 0.00 0.00 0.00 0.00 0.03 0.10 0.10 0.05 0.02 0.02 0.02 0.03 0.09 0.15 0.25 0.47 0.60 0.46 0.21 0.13 0.10 0.09 0.05 0.04 0.04 0.02 0.01 0.01 0.00 0.00 0.00 0.00 0.00 0.01 0.03
0.10 0.12 0.16 0.18 0.15 0.14 0.06 0.01 0.00 0.00 0.00 0.00 0.00 0.00 0.00 0.00 0.00 0.00 0.03 0.07 0.12 0.07 0.03 0.01 0.01 0.02 0.07 0.14 0.23 0.39 0.56 0.52 0.26 0.15 0.13 0.09 0.05 0.06 0.02 0.00 0.00 0.00 0.00 0.00 0.00 0.00 0.00 0.00 0.02
0.14 0.13 0.14 0.21 0.21 0.17 0.10 0.02 0.02 0.01 0.01 0.01 0.00 0.00 0.00 0.00 0.00 0.00 0.00 0.01 0.04 0.04 0.04 0.03 0.02 0.02 0.03 0.07 0.21 0.29 0.32 0.31 0.19 0.17 0.09 0.10 0.16 0.11 0.02 0.00 0.00 0.00 0.00 0.00 0.01 0.00 0.00 0.00 0.00
0.13 0.11 0.10 0.15 0.17 0.10 0.07 0.05 0.03 0.03 0.02 0.03 0.01 0.01 0.01 0.00 0.00 0.00 0.00 0.00 0.00 0.00 0.01 0.01 0.01 0.01 0.02 0.06 0.15 0.22 0.32 0.32 0.34 0.28 0.14 0.12 0.13 0.06 0.00 0.00 0.00 0.01 0.00 0.00 0.01 0.01 0.00 0.00 0.00
0.10 0.05 0.06 0.08 0.07 0.09 0.06 0.05 0.05 0.05 0.05 0.04 0.02 0.02 0.02 0.02 0.01 0.01 0.00 0.00 0.00 0.00 0.00 0.00 0.00 0.01 0.01 0.03 0.10 0.17 0.25 0.34 0.35 0.20 0.05 0.04 0.07 0.05 0.01 0.00 0.01 0.01 0.01 0.00 0.00 0.00 0.00 0.00 0.00
0.10 0.10 0.06 0.06 0.09 0.11 0.06 0.03 0.05 0.08 0.06 0.03 0.02 0.04 0.06 0.07 0.07 0.05 0.03 0.02 0.01 0.01 0.01 0.00 0.00 0.00 0.02 0.03 0.07 0.10 0.21 0.29 0.22 0.17 0.08 0.06 0.05 0.05 0.03 0.01 0.01 0.01 0.01 0.00 0.00 0.00 0.00 0.00 0.00
0.05 0.11 0.11 0.09 0.09 0.07 0.06 0.06 0.09 0.12 0.09 0.06 0.04 0.06 0.10 0.12 0.13 0.12 0.09 0.07 0.05 0.04 0.03 0.02 0.01 0.01 0.01 0.02 0.03 0.07 0.12 0.17 0.18 0.13 0.08 0.10 0.08 0.05 0.04 0.01 0.01 0.02 0.01 0.01 0.00 0.00 0.00 0.00 0.00
0.05 0.06 0.04 0.05 0.05 0.05 0.06 0.08 0.12 0.14 0.12 0.09 0.07 0.08 0.12 0.16 0.16 0.18 0.16 0.10 0.08 0.08 0.06 0.06 0.05 0.04 0.05 0.05 0.06 0.06 0.06 0.08 0.10 0.13 0.13 0.16 0.15 0.11 0.08 0.03 0.02 0.02 0.02 0.03 0.03 0.01 0.00 0.00 0.01
0.02 0.02 0.02 0.06 0.09 0.11 0.09 0.08 0.16 0.18 0.15 0.11 0.08 0.06 0.07 0.10 0.14 0.19 0.20 0.15 0.12 0.10 0.07 0.07 0.08 0.07 0.07 0.06 0.06 0.05 0.05 0.08 0.14 0.17 0.13 0.14 0.18 0.18 0.13 0.08 0.06 0.06 0.06 0.08 0.08 0.04 0.02 0.01 0.01
0.01 0.02 0.04 0.06 0.09 0.14 0.16 0.17 0.19 0.15 0.14 0.11 0.07 0.05 0.05 0.07 0.11 0.16 0.18 0.18 0.16 0.13 0.10 0.10 0.10 0.10 0.09 0.09 0.10 0.10 0.11 0.21 0.31 0.22 0.14 0.23 0.30 0.26 0.23 0.24 0.20 0.16 0.16 0.11 0.09 0.07 0.06 0.04 0.03
0.06 0.08 0.10 0.10 0.09 0.08 0.11 0.15 0.14 0.08 0.05 0.05 0.05 0.04 0.03 0.04 0.08 0.14 0.17 0.17 0.17 0.16 0.14 0.14 0.14 0.13 0.11 0.15 0.21 0.27 0.25 0.29 0.41 0.41 0.36 0.43 0.50 0.46 0.45 0.41 0.31 0.25 0.26 0.20 0.17 0.19 0.13 0.10 0.06
0.12 0.11 0.08 0.06 0.04 0.04 0.04 0.05 0.07 0.05 0.04 0.04 0.05 0.04 0.03 0.03 0.05 0.07 0.11 0.13 0.14 0.13 0.14 0.17 0.19 0.19 0.18 0.19 0.26 0.30 0.34 0.39 0.50 0.48 0.51 0.59 0.64 0.60 0.61 0.62 0.52 0.39 0.34 0.31 0.32 0.41 0.35 0.24 0.12
0.03 0.01 0.01 0.01 0.01 0.01 0.01 0.03 0.05 0.05 0.05 0.05 0.05 0.04 0.03 0.03 0.03 0.04 0.06 0.08 0.09 0.08 0.10 0.14 0.21 0.29 0.31 0.33 0.42 0.51 0.63 0.64 0.66 0.66 0.66 0.66 0.64 0.61 0.63 0.72 0.73 0.59 0.52 0.54 0.49 0.54 0.61 0.52 0.31
0.01 0.01 0.01 0.01 0.00 0.00 0.01 0.02 0.04 0.06 0.07 0.07 0.06 0.05 0.04 0.02 0.03 0.03 0.03 0.05 0.07 0.06 0.07 0.13 0.26 0.44 0.61 0.71 0.91 1.12 1.31 1.32 1.15 1.02 0.94 0.81 0.76 0.74 0.69 0.72 0.73 0.63 0.59 0.61 0.68 0.74 0.83 0.74 0.61
0.00 0.00 0.01 0.00 0.00 0.00 0.00 0.01 0.03 0.09 0.13 0.14 0.12 0.11 0.09 0.08 0.07 0.06 0.07 0.06 0.07 0.09 0.16 0.30 0.53 0.82 1.06 1.20 1.38 1.57 1.65 1.62 1.47 1.34 1.17 0.96 0.85 0.74 0.63 0.65 0.70 0.73 0.78 0.79 0.85 0.78 0.85 0.87 0.72
0.00 0.00 0.00 0.00 0.00 0.00 0.00 0.01 0.07 0.16 0.24 0.26 0.27 0.25 0.23 0.19 0.14 0.15 0.18 0.18 0.24 0.33 0.51 0.76 1.02 1.27 1.42 1.45 1.54 1.72 1.85 1.95 1.91 1.72 1.46 1.22 1.05 0.91 0.73 0.66 0.65 0.62 0.64 0.69 0.71 0.66 0.73 0.78 0.82
0.01 0.02 0.02 0.02 0.02 0.01 0.01 0.04 0.15 0.24 0.30 0.35 0.36 0.31 0.27 0.23 0.21 0.28 0.38 0.46 0.60 0.70 0.87 1.08 1.23 1.38 1.37 1.36 1.41 1.53 1.69 1.81 1.81 1.78 1.69 1.48 1.24 1.03 0.84 0.71 0.69 0.66 0.58 0.60 0.61 0.59 0.67 0.67 0.69
0.03 0.07 0.07 0.05 0.05 0.04 0.06 0.18 0.26 0.26 0.26 0.31 0.32 0.30 0.29 0.26 0.31 0.45 0.58 0.69 0.81 0.91 1.03 1.07 1.08 1.13 1.16 1.15 1.17 1.22 1.24 1.26 1.28 1.32 1.20 1.05 0.90 0.80 0.75 0.65 0.62 0.59 0.52 0.56 0.47 0.35 0.38 0.46 0.52
0.01 0.04 0.10 0.09 0.07 0.10 0.15 0.36 0.39 0.30 0.24 0.22 0.23 0.26 0.34 0.45 0.53 0.62 0.65 0.71 0.77 0.88 0.98 1.00 0.97 0.95 0.92 0.85 0.83 0.83 0.85 0.84 0.81 0.76 0.68 0.60 0.54 0.49 0.45 0.41 0.36 0.32 0.28 0.35 0.40 0.29 0.24 0.22 0.28
0.01 0.03 0.09 0.18 0.13 0.12 0.20 0.44 0.43 0.28 0.21 0.20 0.20 0.24 0.38 0.57 0.75 0.84 0.80 0.74 0.65 0.66 0.76 0.81 0.77 0.73 0.69 0.65 0.66 0.68 0.63 0.58 0.53 0.47 0.42 0.39 0.34 0.30 0.28 0.24 0.21 0.19 0.17 0.19 0.23 0.30 0.29 0.18 0.15
0.02 0.05 0.13 0.23 0.22 0.23 0.30 0.45 0.40 0.29 0.24 0.21 0.24 0.32 0.50 0.71 0.84 1.03 1.15 1.03 0.73 0.53 0.51 0.50 0.52 0.55 0.57 0.58 0.59 0.57 0.48 0.42 0.39 0.36 0.34 0.33 0.32 0.29 0.27 0.20 0.15 0.14 0.14 0.19 0.22 0.19 0.20 0.18 0.17
0.04 0.10 0.16 0.20 0.23 0.34 0.55 0.68 0.57 0.46 0.40 0.37 0.39 0.45 0.54 0.79 1.06 1.16 1.18 0.97 0.82 0.60 0.50 0.46 0.46 0.48 0.54 0.52 0.54 0.48 0.40 0.34 0.31 0.28 0.26 0.24 0.22 0.22 0.20 0.18 0.17 0.16 0.15 0.16 0.14 0.11 0.09 0.08 0.09
0.11 0.19 0.27 0.35 0.39 0.41 0.53 0.64 0.52 0.54 0.59 0.53 0.54 0.63 0.66 0.71 0.75 0.77 0.85 0.82 0.78 0.66 0.58 0.62 0.66 0.64 0.56 0.50 0.47 0.43 0.37 0.33 0.33 0.31 0.27 0.24 0.21 0.21 0.19 0.19 0.21 0.21 0.20 0.17 0.16 0.14 0.09 0.07 0.06

GEFSSGP_prec_meanprecacc_036.txt.gz
Total_Precipitation_Accumulation
0.02 0.07 0.12 0.17 0.30 0.13 0.00 0.00 0.00 0.00 0.00 0.00 0.00 0.00 0.00 0.00 0.01 0.13 0.04 0.00 0.00 0.00 0.00 0.02 0.02 0.02 0.02 0.04 0.08 0.10 0.09 0.06 0.10 0.12 0.12 0.15 0.11 0.08 0.04 0.03 0.02 0.01 0.03 0.07 0.08 0.09 0.09 0.13 0.17
0.03 0.06 0.12 0.29 0.21 0.01 0.00 0.00 0.00 0.00 0.00 0.00 0.00 0.00 0.00 0.00 0.00 0.00 0.00 0.01 0.00 0.00 0.00 0.01 0.02 0.02 0.04 0.07 0.13 0.14 0.12 0.09 0.12 0.12 0.12 0.12 0.11 0.06 0.07 0.09 0.04 0.02 0.02 0.03 0.04 0.05 0.08 0.15 0.19
0.01 0.04 0.16 0.22 0.06 0.00 0.00 0.00 0.00 0.00 0.00 0.00 0.00 0.00 0.00 0.00 0.00 0.01 0.01 0.01 0.00 0.00 0.01 0.02 0.05 0.04 0.07 0.12 0.24 0.24 0.19 0.14 0.08 0.07 0.07 0.07 0.06 0.06 0.13 0.06 0.02 0.02 0.03 0.03 0.04 0.05 0.06 0.14 0.21
0.02 0.06 0.24 0.12 0.01 0.00 0.00 0.00 0.00 0.00 0.00 0.00 0.00 0.00 0.00 0.00 0.00 0.00 0.00 0.00 0.00 0.00 0.02 0.08 0.18 0.13 0.14 0.19 0.34 0.29 0.22 0.20 0.09 0.06 0.05 0.05 0.03 0.06 0.08 0.05 0.05 0.02 0.02 0.03 0.03 0.05 0.05 0.13 0.19
0.05 0.15 0.36 0.46 0.04 0.00 0.00 0.00 0.00 0.00 0.00 0.00 0.00 0.00 0.00 0.00 0.00 0.00 0.00 0.00 0.00 0.01 0.02 0.10 0.26 0.22 0.17 0.21 0.32 0.28 0.24 0.25 0.13 0.07 0.06 0.05 0.04 0.07 0.08 0.11 0.06 0.02 0.01 0.02 0.02 0.02 0.04 0.09 0.14
0.10 0.25 0.49 0.59 0.06 0.00 0.00 0.00 0.00 0.00 0.00 0.00 0.00 0.00 0.00 0.00 0.00 0.00 0.00 0.00 0.01 0.02 0.02 0.06 0.18 0.17 0.17 0.24 0.32 0.35 0.28 0.23 0.11 0.08 0.07 0.06 0.06 0.08 0.10 0.10 0.05 0.02 0.01 0.02 0.02 0.01 0.02 0.04 0.10
0.10 0.26 0.33 0.21 0.04 0.01 0.00 0.00 0.00 0.00 0.00 0.00 0.00 0.00 0.00 0.00 0.00 0.00 0.01 0.04 0.06 0.05 0.04 0.05 0.06 0.06 0.11 0.23 0.27 0.43 0.46 0.29 0.13 0.10 0.08 0.07 0.06 0.06 0.07 0.05 0.02 0.01 0.01 0.02 0.01 0.00 0.01 0.03 0.07
0.10 0.16 0.23 0.20 0.10 0.06 0.02 0.01 0.00 0.00 0.00 0.00 0.00 0.00 0.00 0.00 0.00 0.00 0.04 0.11 0.11 0.05 0.02 0.02 0.02 0.03 0.09 0.15 0.26 0.49 0.62 0.47 0.22 0.13 0.10 0.09 0.06 0.05 0.04 0.02 0.01 0.01 0.00 0.00 0.00 0.00 0.00 0.02 0.04
0.10 0.12 0.17 0.21 0.17 0.15 0.07 0.02 0.01 0.01 0.01 0.00 0.00 0.00 0.00 0.00 0.00 0.01 0.03 0.08 0.12 0.07 0.03 0.01 0.02 0.02 0.07 0.14 0.23 0.40 0.58 0.54 0.27 0.16 0.14 0.09 0.05 0.06 0.02 0.00 0.00 0.00 0.00 0.00 0.00 0.00 0.00 0.01 0.02
0.14 0.14 0.16 0.23 0.22 0.18 0.11 0.04 0.04 0.03 0.02 0.02 0.01 0.01 0.00 0.01 0.02 0.03 0.03 0.04 0.05 0.05 0.04 0.03 0.02 0.02 0.03 0.07 0.21 0.29 0.32 0.33 0.20 0.18 0.09 0.10 0.17 0.11 0.02 0.00 0.00 0.01 0.00 0.00 0.01 0.00 0.00 0.00 0.00
0.13 0.12 0.12 0.15 0.17 0.11 0.08 0.07 0.07 0.07 0.05 0.04 0.03 0.03 0.02 0.03 0.07 0.09 0.11 0.10 0.07 0.05 0.03 0.02 0.01 0.01 0.02 0.06 0.15 0.22 0.32 0.32 0.34 0.28 0.14 0.12 0.13 0.06 0.01 0.00 0.00 0.01 0.01 0.00 0.01 0.01 0.00 0.00 0.00
0.10 0.06 0.07 0.09 0.08 0.10 0.08 0.07 0.09 0.09 0.07 0.05 0.04 0.05 0.05 0.07 0.10 0.11 0.14 0.17 0.18 0.17 0.13 0.09 0.04 0.02 0.02 0.04 0.11 0.18 0.26 0.35 0.35 0.20 0.05 0.04 0.07 0.05 0.01 0.00 0.01 0.01 0.01 0.00 0.00 0.00 0.00 0.00 0.00
0.11 0.11 0.07 0.08 0.10 0.13 0.09 0.07 0.09 0.11 0.09 0.06 0.07 0.12 0.18 0.20 0.20 0.18 0.17 0.17 0.19 0.21 0.22 0.19 0.12 0.07 0.06 0.05 0.08 0.11 0.21 0.29 0.23 0.18 0.09 0.06 0.05 0.05 0.03 0.01 0.01 0.01 0.01 0.00 0.00 0.00 0.00 0.00 0.00
0.06 0.12 0.12 0.10 0.11 0.10 0.09 0.09 0.12 0.14 0.12 0.11 0.13 0.20 0.28 0.33 0.35 0.33 0.29 0.27 0.26 0.24 0.24 0.25 0.21 0.18 0.15 0.12 0.11 0.12 0.14 0.18 0.18 0.14 0.08 0.11 0.08 0.05 0.05 0.03 0.02 0.02 0.01 0.01 0.00 0.00 0.00 0.00 0.00
0.05 0.06 0.05 0.05 0.05 0.06 0.08 0.10 0.15 0.16 0.14 0.13 0.15 0.19 0.28 0.37 0.40 0.42 0.37 0.32 0.30 0.30 0.27 0.29 0.32 0.32 0.29 0.28 0.28 0.22 0.21 0.17 0.15 0.16 0.15 0.16 0.15 0.12 0.10 0.06 0.04 0.04 0.03 0.03 0.03 0.01 0.00 0.00 0.01
0.02 0.02 0.02 0.06 0.09 0.12 0.10 0.10 0.17 0.20 0.18 0.15 0.13 0.14 0.17 0.21 0.28 0.36 0.36 0.31 0.30 0.28 0.25 0.29 0.33 0.36 0.39 0.38 0.39 0.36 0.35 0.31 0.29 0.26 0.17 0.16 0.19 0.20 0.17 0.14 0.12 0.13 0.09 0.09 0.08 0.04 0.02 0.01 0.01
0.01 0.02 0.04 0.06 0.09 0.15 0.16 0.18 0.20 0.17 0.15 0.13 0.10 0.09 0.11 0.13 0.18 0.25 0.28 0.27 0.26 0.25 0.23 0.25 0.30 0.34 0.39 0.43 0.48 0.47 0.46 0.51 0.56 0.42 0.26 0.31 0.36 0.32 0.31 0.34 0.32 0.27 0.22 0.15 0.10 0.07 0.06 0.04 0.03
0.06 0.08 0.10 0.10 0.09 0.08 0.11 0.15 0.15 0.08 0.05 0.06 0.07 0.06 0.06 0.07 0.11 0.17 0.20 0.21 0.23 0.23 0.22 0.24 0.29 0.30 0.31 0.40 0.52 0.58 0.53 0.57 0.72 0.70 0.59 0.60 0.65 0.59 0.57 0.56 0.47 0.40 0.37 0.26 0.21 0.20 0.14 0.10 0.06
0.12 0.11 0.08 0.06 0.04 0.04 0.04 0.05 0.07 0.05 0.04 0.05 0.06 0.05 0.04 0.05 0.06 0.09 0.12 0.15 0.16 0.17 0.19 0.23 0.28 0.30 0.31 0.37 0.45 0.50 0.55 0.71 0.88 0.89 0.86 0.89 0.88 0.83 0.84 0.85 0.76 0.61 0.50 0.44 0.42 0.46 0.37 0.25 0.12
0.03 0.01 0.01 0.01 0.01 0.01 0.01 0.03 0.05 0.06 0.05 0.05 0.05 0.05 0.04 0.04 0.04 0.04 0.06 0.09 0.10 0.09 0.12 0.17 0.25 0.34 0.39 0.43 0.56 0.69 0.88 0.96 1.06 1.14 1.08 1.03 1.00 0.95 0.97 1.06 1.08 0.92 0.80 0.77 0.66 0.64 0.67 0.54 0.33
0.01 0.01 0.01 0.01 0.00 0.00 0.01 0.02 0.04 0.06 0.07 0.08 0.07 0.07 0.06 0.04 0.04 0.03 0.04 0.05 0.07 0.07 0.08 0.14 0.28 0.47 0.65 0.77 0.99 1.25 1.49 1.54 1.43 1.36 1.35 1.28 1.23 1.16 1.07 1.10 1.15 1.04 0.97 0.93 0.95 0.94 0.98 0.85 0.68
0.00 0.00 0.01 0.00 0.00 0.00 0.00 0.01 0.04 0.10 0.14 0.15 0.14 0.13 0.11 0.11 0.09 0.07 0.07 0.07 0.07 0.09 0.17 0.31 0.54 0.83 1.08 1.23 1.42 1.63 1.73 1.76 1.68 1.64 1.57 1.47 1.32 1.18 1.06 1.08 1.14 1.18 1.20 1.19 1.21 1.07 1.09 1.05 0.86
0.00 0.00 0.00 0.00 0.00 0.00 0.00 0.01 0.07 0.16 0.24 0.27 0.28 0.27 0.25 0.24 0.18 0.17 0.19 0.19 0.25 0.34 0.51 0.76 1.02 1.27 1.42 1.46 1.55 1.74 1.89 2.03 2.03 1.89 1.73 1.54 1.41 1.30 1.14 1.08 1.07 1.06 1.07 1.11 1.12 1.03 1.06 1.05 1.05
0.01 0.02 0.02 0.02 0.02 0.01 0.01 0.04 0.15 0.24 0.30 0.35 0.37 0.33 0.31 0.29 0.28 0.32 0.42 0.50 0.64 0.72 0.88 1.08 1.23 1.38 1.37 1.36 1.41 1.53 1.70 1.84 1.87 1.87 1.83 1.68 1.47 1.30 1.16 1.04 1.04 1.02 0.92 0.94 0.98 0.95 1.01 1.00 0.98
0.03 0.07 0.07 0.05 0.05 0.04 0.06 0.18 0.26 0.26 0.26 0.32 0.34 0.33 0.33 0.33 0.40 0.54 0.66 0.76 0.87 0.94 1.05 1.08 1.08 1.13 1.16 1.15 1.17 1.22 1.25 1.28 1.31 1.38 1.28 1.15 1.03 0.96 0.92 0.81 0.80 0.81 0.77 0.84 0.78 0.67 0.68 0.75 0.79
0.01 0.04 0.10 0.09 0.07 0.10 0.15 0.36 0.40 0.30 0.25 0.24 0.26 0.31 0.41 0.56 0.65 0.73 0.79 0.83 0.85 0.94 1.02 1.02 0.98 0.96 0.92 0.86 0.84 0.85 0.86 0.85 0.83 0.79 0.72 0.66 0.61 0.56 0.54 0.52 0.48 0.46 0.43 0.53 0.62 0.53 0.48 0.44 0.49
0.01 0.03 0.09 0.18 0.13 0.12 0.20 0.44 0.44 0.29 0.23 0.22 0.23 0.31 0.46 0.67 0.91 1.04 0.98 0.86 0.74 0.75 0.85 0.87 0.81 0.76 0.70 0.66 0.68 0.70 0.65 0.59 0.54 0.49 0.44 0.41 0.38 0.36 0.35 0.33 0.31 0.31 0.29 0.31 0.35 0.43 0.42 0.32 0.29
0.02 0.05 0.13 0.23 0.22 0.23 0.30 0.47 0.43 0.31 0.27 0.24 0.29 0.39 0.57 0.78 0.96 1.20 1.29 1.16 0.88 0.69 0.66 0.63 0.62 0.63 0.63 0.61 0.61 0.59 0.49 0.43 0.41 0.38 0.36 0.35 0.35 0.34 0.34 0.26 0.22 0.20 0.21 0.27 0.31 0.27 0.29 0.27 0.27
0.04 0.10 0.16 0.20 0.23 0.34 0.55 0.70 0.59 0.49 0.43 0.42 0.46 0.53 0.59 0.86 1.14 1.27 1.31 1.13 0.96 0.72 0.62 0.58 0.55 0.57 0.61 0.57 0.57 0.52 0.44 0.37 0.32 0.30 0.28 0.25 0.24 0.25 0.25 0.23 0.23 0.22 0.21 0.22 0.20 0.17 0.15 0.15 0.16
0.11 0.19 0.27 0.35 0.39 0.41 0.53 0.65 0.53 0.55 0.61 0.55 0.59 0.69 0.71 0.76 0.80 0.83 0.93 0.92 0.86 0.73 0.66 0.69 0.73 0.72 0.64 0.56 0.53 0.48 0.42 0.36 0.35 0.33 0.28 0.25 0.22 0.23 0.22 0.23 0.26 0.27 0.27 0.26 0.24 0.20 0.16 0.14 0.13

GEFSSGP_prec_meanprecacc_042.txt.gz
Total_Precipitation_Accumulation
0.02 0.07 0.12 0.17 0.30 0.13 0.00 0.00 0.00 0.00 0.00 0.00 0.00 0.00 0.00 0.00 0.01 0.14 0.04 0.00 0.00 0.00 0.00 0.02 0.03 0.03 0.04 0.07 0.10 0.12 0.12 0.09 0.12 0.14 0.15 0.17 0.13 0.10 0.06 0.04 0.04 0.04 0.06 0.10 0.10 0.11 0.11 0.16 0.19
0.03 0.06 0.12 0.29 0.21 0.01 0.00 0.00 0.00 0.00 0.00 0.00 0.00 0.00 0.00 0.00 0.00 0.01 0.00 0.01 0.00 0.00 0.00 0.01 0.02 0.03 0.05 0.09 0.14 0.15 0.14 0.11 0.13 0.13 0.14 0.14 0.13 0.08 0.09 0.10 0.05 0.04 0.04 0.05 0.07 0.07 0.10 0.18 0.22
0.01 0.04 0.16 0.22 0.06 0.00 0.00 0.00 0.00 0.00 0.00 0.00 0.00 0.00 0.00 0.00 0.00 0.01 0.01 0.01 0.00 0.00 0.01 0.02 0.06 0.05 0.07 0.14 0.26 0.26 0.21 0.16 0.09 0.09 0.08 0.09 0.08 0.08 0.15 0.07 0.03 0.03 0.03 0.04 0.06 0.08 0.09 0.17 0.24
0.02 0.06 0.24 0.12 0.01 0.00 0.00 0.00 0.00 0.00 0.00 0.00 0.00 0.00 0.00 0.00 0.00 0.00 0.00 0.00 0.00 0.00 0.02 0.08 0.18 0.14 0.14 0.20 0.34 0.30 0.24 0.22 0.10 0.08 0.07 0.07 0.05 0.08 0.10 0.07 0.06 0.03 0.02 0.03 0.05 0.08 0.10 0.16 0.22
0.05 0.15 0.36 0.47 0.04 0.00 0.00 0.00 0.00 0.00 0.00 0.00 0.00 0.00 0.00 0.00 0.00 0.00 0.00 0.00 0.00 0.01 0.02 0.10 0.26 0.22 0.18 0.21 0.33 0.29 0.25 0.26 0.14 0.08 0.08 0.06 0.06 0.08 0.09 0.12 0.07 0.02 0.01 0.02 0.02 0.04 0.08 0.12 0.18
0.10 0.25 0.49 0.60 0.06 0.00 0.00 0.00 0.00 0.00 0.00 0.00 0.00 0.00 0.00 0.00 0.00 0.00 0.00 0.00 0.01 0.02 0.02 0.06 0.19 0.18 0.17 0.24 0.33 0.36 0.29 0.24 0.13 0.09 0.09 0.07 0.08 0.09 0.11 0.11 0.05 0.02 0.01 0.02 0.02 0.02 0.04 0.08 0.13
0.10 0.26 0.33 0.22 0.05 0.01 0.00 0.00 0.00 0.00 0.00 0.00 0.00 0.00 0.00 0.01 0.00 0.00 0.01 0.04 0.06 0.05 0.04 0.05 0.06 0.07 0.11 0.23 0.28 0.44 0.47 0.31 0.16 0.11 0.09 0.09 0.08 0.08 0.09 0.06 0.03 0.01 0.01 0.02 0.01 0.01 0.02 0.05 0.09
0.10 0.16 0.23 0.20 0.11 0.07 0.02 0.01 0.01 0.01 0.01 0.01 0.01 0.00 0.00 0.02 0.02 0.01 0.05 0.11 0.11 0.05 0.02 0.02 0.02 0.04 0.10 0.16 0.29 0.53 0.66 0.51 0.26 0.17 0.12 0.11 0.08 0.07 0.06 0.03 0.01 0.01 0.00 0.00 0.00 0.00 0.01 0.02 0.05
0.10 0.12 0.18 0.22 0.18 0.17 0.08 0.03 0.03 0.04 0.04 0.04 0.02 0.01 0.01 0.02 0.04 0.06 0.10 0.13 0.15 0.08 0.03 0.02 0.02 0.03 0.08 0.16 0.26 0.48 0.69 0.65 0.35 0.22 0.18 0.12 0.08 0.11 0.07 0.02 0.01 0.00 0.00 0.00 0.00 0.00 0.00 0.01 0.03
0.14 0.14 0.17 0.23 0.23 0.19 0.12 0.05 0.06 0.07 0.07 0.06 0.04 0.03 0.03 0.06 0.08 0.12 0.15 0.14 0.14 0.13 0.07 0.04 0.03 0.03 0.04 0.08 0.24 0.40 0.46 0.49 0.32 0.29 0.17 0.17 0.22 0.15 0.05 0.02 0.01 0.01 0.00 0.00 0.01 0.00 0.00 0.00 0.00
0.13 0.12 0.12 0.16 0.18 0.12 0.09 0.08 0.08 0.09 0.08 0.07 0.06 0.07 0.08 0.12 0.16 0.18 0.22 0.23 0.23 0.23 0.16 0.09 0.08 0.05 0.05 0.10 0.19 0.30 0.46 0.49 0.50 0.40 0.23 0.22 0.20 0.08 0.01 0.01 0.01 0.01 0.01 0.01 0.01 0.01 0.00 0.00 0.00
0.10 0.06 0.07 0.09 0.08 0.11 0.08 0.08 0.10 0.10 0.10 0.08 0.07 0.11 0.16 0.21 0.25 0.26 0.30 0.32 0.34 0.38 0.36 0.25 0.16 0.13 0.09 0.10 0.18 0.26 0.36 0.47 0.48 0.33 0.16 0.16 0.16 0.09 0.02 0.01 0.01 0.01 0.02 0.01 0.00 0.00 0.00 0.00 0.00
0.11 0.11 0.08 0.09 0.11 0.14 0.09 0.07 0.09 0.11 0.10 0.09 0.11 0.19 0.28 0.33 0.36 0.36 0.36 0.39 0.43 0.46 0.50 0.44 0.31 0.22 0.21 0.20 0.20 0.19 0.33 0.41 0.35 0.32 0.22 0.19 0.16 0.11 0.06 0.01 0.01 0.01 0.01 0.01 0.00 0.00 0.00 0.00 0.00
0.06 0.13 0.13 0.11 0.12 0.10 0.10 0.09 0.12 0.14 0.13 0.13 0.17 0.26 0.36 0.42 0.46 0.46 0.45 0.46 0.46 0.46 0.47 0.47 0.42 0.38 0.34 0.30 0.28 0.29 0.29 0.36 0.34 0.25 0.18 0.22 0.21 0.14 0.11 0.05 0.03 0.02 0.01 0.01 0.00 0.00 0.00 0.00 0.00
0.05 0.06 0.05 0.05 0.05 0.06 0.08 0.11 0.15 0.16 0.15 0.15 0.18 0.23 0.33 0.42 0.46 0.48 0.45 0.41 0.41 0.42 0.42 0.45 0.51 0.54 0.52 0.50 0.49 0.44 0.40 0.36 0.34 0.34 0.32 0.31 0.27 0.22 0.19 0.10 0.06 0.05 0.04 0.04 0.03 0.01 0.00 0.00 0.01
0.02 0.02 0.03 0.06 0.09 0.12 0.10 0.10 0.17 0.21 0.18 0.15 0.14 0.15 0.19 0.24 0.31 0.39 0.40 0.35 0.35 0.34 0.32 0.37 0.43 0.50 0.56 0.60 0.63 0.59 0.60 0.56 0.49 0.47 0.38 0.34 0.34 0.32 0.28 0.20 0.16 0.17 0.13 0.12 0.10 0.05 0.02 0.01 0.01
0.01 0.02 0.04 0.06 0.09 0.15 0.16 0.18 0.20 0.17 0.15 0.13 0.10 0.10 0.11 0.14 0.19 0.26 0.29 0.29 0.28 0.27 0.25 0.28 0.33 0.40 0.48 0.56 0.63 0.64 0.66 0.79 0.83 0.65 0.45 0.48 0.51 0.45 0.45 0.46 0.44 0.40 0.33 0.20 0.13 0.09 0.06 0.04 0.03
0.06 0.08 0.10 0.10 0.09 0.08 0.12 0.15 0.15 0.08 0.06 0.06 0.07 0.06 0.06 0.07 0.11 0.18 0.20 0.21 0.23 0.24 0.23 0.25 0.31 0.32 0.35 0.46 0.61 0.68 0.65 0.74 0.93 0.91 0.82 0.81 0.83 0.78 0.76 0.73 0.66 0.61 0.54 0.38 0.28 0.25 0.17 0.12 0.07
0.12 0.11 0.08 0.06 0.04 0.04 0.04 0.05 0.07 0.05 0.04 0.05 0.06 0.05 0.04 0.05 0.06 0.09 0.12 0.15 0.16 0.17 0.19 0.23 0.29 0.32 0.33 0.40 0.51 0.58 0.65 0.82 1.01 1.05 1.08 1.12 1.11 1.07 1.09 1.09 1.00 0.86 0.72 0.65 0.60 0.60 0.45 0.30 0.15
0.03 0.01 0.01 0.01 0.01 0.01 0.01 0.03 0.05 0.06 0.05 0.05 0.05 0.05 0.04 0.05 0.04 0.05 0.07 0.09 0.10 0.10 0.12 0.17 0.25 0.34 0.39 0.44 0.58 0.73 0.94 1.05 1.17 1.31 1.29 1.27 1.24 1.20 1.20 1.31 1.34 1.18 1.06 1.05 0.91 0.85 0.83 0.64 0.38
0.01 0.01 0.01 0.01 0.00 0.00 0.01 0.02 0.04 0.06 0.07 0.08 0.07 0.07 0.06 0.04 0.04 0.04 0.04 0.05 0.07 0.07 0.08 0.14 0.28 0.47 0.65 0.77 1.00 1.27 1.52 1.58 1.49 1.47 1.50 1.48 1.47 1.43 1.32 1.34 1.42 1.32 1.20 1.14 1.17 1.18 1.22 1.04 0.81
0.00 0.00 0.01 0.00 0.00 0.00 0.00 0.01 0.04 0.10 0.14 0.15 0.14 0.13 0.11 0.11 0.09 0.07 0.07 0.07 0.08 0.09 0.17 0.31 0.54 0.83 1.08 1.23 1.42 1.64 1.74 1.78 1.71 1.70 1.67 1.62 1.52 1.39 1.29 1.35 1.42 1.45 1.44 1.41 1.42 1.29 1.34 1.33 1.10
0.00 0.00 0.00 0.00 0.00 0.00 0.00 0.02 0.07 0.16 0.24 0.27 0.28 0.27 0.25 0.24 0.18 0.18 0.20 0.20 0.26 0.35 0.53 0.79 1.04 1.28 1.43 1.47 1.55 1.75 1.90 2.04 2.05 1.94 1.80 1.65 1.54 1.44 1.30 1.27 1.28 1.26 1.27 1.32 1.36 1.25 1.29 1.31 1.31
0.01 0.02 0.02 0.02 0.02 0.01 0.01 0.04 0.15 0.24 0.30 0.35 0.38 0.34 0.32 0.30 0.29 0.34 0.43 0.52 0.66 0.76 0.93 1.14 1.28 1.41 1.40 1.39 1.43 1.54 1.72 1.87 1.89 1.90 1.88 1.74 1.55 1.39 1.26 1.16 1.16 1.16 1.07 1.11 1.16 1.15 1.23 1.23 1.23
0.03 0.07 0.07 0.05 0.05 0.04 0.06 0.18 0.26 0.26 0.26 0.32 0.35 0.34 0.34 0.34 0.41 0.56 0.70 0.82 0.94 1.04 1.13 1.15 1.14 1.18 1.21 1.19 1.20 1.25 1.28 1.31 1.34 1.41 1.32 1.20 1.09 1.03 0.99 0.89 0.88 0.90 0.88 0.96 0.91 0.80 0.83 0.92 0.98
0.01 0.04 0.10 0.09 0.07 0.10 0.15 0.36 0.40 0.31 0.25 0.25 0.26 0.32 0.43 0.57 0.67 0.77 0.86 0.94 0.97 1.09 1.15 1.09 1.04 1.03 0.97 0.90 0.91 0.91 0.90 0.89 0.87 0.83 0.77 0.71 0.67 0.62 0.60 0.58 0.55 0.54 0.53 0.63 0.71 0.63 0.59 0.57 0.63
0.01 0.03 0.09 0.18 0.13 0.12 0.20 0.44 0.44 0.29 0.23 0.22 0.24 0.32 0.47 0.69 0.93 1.08 1.06 0.97 0.88 0.90 0.97 0.95 0.89 0.85 0.77 0.72 0.74 0.75 0.71 0.66 0.61 0.54 0.49 0.46 0.43 0.40 0.39 0.37 0.36 0.36 0.36 0.38 0.43 0.51 0.51 0.42 0.42
0.02 0.05 0.13 0.23 0.22 0.23 0.30 0.47 0.43 0.32 0.27 0.25 0.30 0.40 0.58 0.80 0.99 1.24 1.37 1.26 0.99 0.78 0.79 0.75 0.73 0.75 0.73 0.68 0.68 0.67 0.55 0.49 0.46 0.43 0.40 0.38 0.39 0.37 0.36 0.30 0.26 0.25 0.25 0.33 0.37 0.34 0.36 0.34 0.36
0.04 0.10 0.16 0.20 0.23 0.34 0.55 0.70 0.60 0.49 0.44 0.43 0.47 0.54 0.61 0.88 1.17 1.30 1.35 1.22 1.03 0.76 0.67 0.65 0.63 0.67 0.72 0.64 0.66 0.63 0.53 0.42 0.37 0.34 0.31 0.28 0.27 0.27 0.27 0.26 0.26 0.26 0.24 0.26 0.25 0.24 0.22 0.21 0.21
0.11 0.19 0.27 0.35 0.39 0.41 0.54 0.65 0.53 0.55 0.61 0.56 0.60 0.70 0.72 0.78 0.82 0.85 0.96 0.97 0.90 0.76 0.68 0.72 0.77 0.77 0.69 0.62 0.58 0.53 0.46 0.40 0.39 0.37 0.31 0.28 0.24 0.26 0.25 0.27 0.30 0.30 0.31 0.30 0.29 0.26 0.23 0.21 0.19

GEFSSGP_prec_meanprecacc_048.txt.gz
Total_Precipitation_Accumulation
0.02 0.07 0.12 0.19 0.39 0.17 0.00 0.00 0.00 0.00 0.00 0.00 0.00 0.00 0.00 0.01 0.08 0.23 0.05 0.00 0.00 0.00 0.00 0.02 0.03 0.04 0.05 0.08 0.11 0.13 0.14 0.12 0.16 0.18 0.17 0.19 0.15 0.12 0.08 0.06 0.05 0.05 0.06 0.11 0.11 0.13 0.12 0.17 0.22
0.03 0.06 0.13 0.34 0.27 0.02 0.00 0.00 0.00 0.00 0.00 0.00 0.00 0.00 0.00 0.00 0.00 0.01 0.00 0.01 0.00 0.00 0.00 0.01 0.02 0.03 0.06 0.10 0.15 0.16 0.16 0.13 0.15 0.15 0.15 0.16 0.14 0.09 0.10 0.11 0.06 0.04 0.05 0.06 0.08 0.08 0.11 0.20 0.26
0.01 0.04 0.18 0.28 0.07 0.00 0.00 0.00 0.00 0.00 0.00 0.00 0.00 0.00 0.00 0.00 0.00 0.01 0.01 0.01 0.00 0.00 0.01 0.03 0.06 0.05 0.08 0.14 0.27 0.28 0.24 0.18 0.11 0.10 0.10 0.10 0.08 0.09 0.16 0.08 0.04 0.04 0.04 0.05 0.07 0.09 0.11 0.19 0.26
0.02 0.06 0.25 0.14 0.02 0.00 0.00 0.00 0.00 0.00 0.00 0.00 0.00 0.00 0.00 0.00 0.00 0.00 0.00 0.00 0.00 0.00 0.02 0.09 0.18 0.14 0.15 0.20 0.35 0.30 0.25 0.22 0.11 0.09 0.08 0.08 0.06 0.09 0.10 0.07 0.06 0.03 0.02 0.03 0.05 0.09 0.11 0.18 0.24
0.05 0.15 0.38 0.49 0.05 0.00 0.00 0.00 0.00 0.00 0.00 0.00 0.00 0.00 0.01 0.01 0.00 0.00 0.00 0.00 0.00 0.01 0.02 0.11 0.26 0.22 0.18 0.22 0.33 0.29 0.26 0.27 0.15 0.09 0.08 0.07 0.07 0.09 0.10 0.12 0.07 0.03 0.01 0.02 0.02 0.05 0.08 0.13 0.19
0.10 0.26 0.52 0.66 0.10 0.01 0.01 0.01 0.01 0.01 0.00 0.00 0.00 0.00 0.01 0.01 0.00 0.00 0.00 0.00 0.01 0.02 0.02 0.07 0.19 0.18 0.17 0.25 0.34 0.37 0.31 0.25 0.14 0.10 0.10 0.08 0.09 0.10 0.11 0.11 0.05 0.02 0.01 0.02 0.02 0.02 0.04 0.09 0.14
0.10 0.27 0.35 0.24 0.09 0.03 0.02 0.01 0.02 0.03 0.01 0.01 0.01 0.03 0.05 0.03 0.01 0.01 0.01 0.04 0.06 0.06 0.05 0.07 0.08 0.08 0.13 0.25 0.30 0.47 0.51 0.33 0.18 0.14 0.11 0.10 0.09 0.10 0.10 0.07 0.03 0.01 0.01 0.02 0.01 0.01 0.02 0.05 0.09
0.10 0.16 0.25 0.24 0.18 0.16 0.04 0.01 0.02 0.02 0.03 0.02 0.03 0.07 0.11 0.09 0.05 0.03 0.06 0.12 0.11 0.06 0.04 0.05 0.06 0.09 0.18 0.28 0.40 0.61 0.73 0.58 0.33 0.22 0.16 0.14 0.09 0.08 0.08 0.04 0.01 0.01 0.00 0.00 0.00 0.00 0.01 0.03 0.05
0.10 0.14 0.27 0.31 0.25 0.26 0.10 0.03 0.03 0.05 0.07 0.06 0.04 0.07 0.09 0.07 0.08 0.09 0.14 0.18 0.18 0.10 0.05 0.04 0.07 0.12 0.21 0.30 0.47 0.70 0.84 0.78 0.46 0.31 0.24 0.15 0.11 0.19 0.18 0.06 0.02 0.01 0.00 0.00 0.00 0.00 0.01 0.01 0.03
0.14 0.19 0.25 0.26 0.23 0.21 0.13 0.07 0.08 0.09 0.11 0.10 0.08 0.09 0.09 0.12 0.16 0.21 0.25 0.25 0.26 0.21 0.12 0.08 0.08 0.09 0.12 0.16 0.43 0.67 0.67 0.74 0.50 0.50 0.37 0.28 0.32 0.34 0.26 0.14 0.04 0.02 0.01 0.00 0.01 0.00 0.00 0.00 0.00
0.13 0.14 0.13 0.16 0.18 0.12 0.10 0.10 0.11 0.12 0.12 0.11 0.09 0.11 0.14 0.19 0.24 0.25 0.28 0.30 0.32 0.32 0.23 0.15 0.14 0.11 0.13 0.21 0.33 0.51 0.73 0.81 0.82 0.76 0.65 0.56 0.44 0.26 0.14 0.13 0.08 0.03 0.02 0.01 0.01 0.01 0.00 0.00 0.00
0.10 0.07 0.08 0.09 0.09 0.11 0.09 0.08 0.11 0.12 0.11 0.10 0.10 0.15 0.22 0.28 0.33 0.34 0.36 0.38 0.42 0.46 0.45 0.32 0.23 0.20 0.18 0.22 0.32 0.46 0.60 0.73 0.74 0.61 0.51 0.66 0.58 0.33 0.19 0.21 0.16 0.08 0.05 0.03 0.01 0.00 0.00 0.00 0.00
0.11 0.11 0.08 0.09 0.11 0.14 0.09 0.07 0.09 0.12 0.11 0.10 0.13 0.22 0.33 0.40 0.43 0.43 0.43 0.46 0.50 0.53 0.57 0.50 0.36 0.28 0.29 0.30 0.31 0.33 0.50 0.63 0.60 0.65 0.52 0.55 0.53 0.36 0.23 0.17 0.14 0.08 0.04 0.02 0.01 0.00 0.00 0.00 0.00
0.06 0.13 0.13 0.11 0.12 0.10 0.10 0.09 0.12 0.14 0.13 0.14 0.18 0.27 0.37 0.44 0.48 0.49 0.48 0.49 0.49 0.50 0.51 0.51 0.47 0.43 0.40 0.38 0.36 0.39 0.41 0.53 0.51 0.47 0.38 0.51 0.56 0.46 0.35 0.18 0.17 0.11 0.04 0.02 0.01 0.00 0.00 0.00 0.00
0.05 0.06 0.05 0.05 0.05 0.06 0.08 0.11 0.15 0.17 0.15 0.15 0.18 0.23 0.33 0.43 0.47 0.49 0.46 0.42 0.42 0.44 0.44 0.47 0.53 0.57 0.55 0.55 0.55 0.51 0.51 0.51 0.51 0.51 0.47 0.53 0.58 0.53 0.42 0.24 0.18 0.15 0.10 0.07 0.04 0.02 0.01 0.01 0.01
0.02 0.03 0.07 0.08 0.10 0.13 0.12 0.12 0.17 0.21 0.18 0.16 0.14 0.15 0.19 0.24 0.31 0.40 0.40 0.36 0.35 0.34 0.33 0.38 0.45 0.52 0.58 0.62 0.65 0.61 0.64 0.65 0.60 0.60 0.52 0.49 0.56 0.58 0.53 0.39 0.28 0.28 0.26 0.20 0.14 0.07 0.03 0.02 0.01
0.01 0.04 0.09 0.09 0.10 0.15 0.18 0.19 0.20 0.17 0.15 0.13 0.10 0.10 0.11 0.14 0.19 0.26 0.29 0.29 0.28 0.27 0.25 0.29 0.34 0.41 0.48 0.57 0.65 0.66 0.69 0.81 0.88 0.74 0.56 0.59 0.66 0.65 0.74 0.71 0.60 0.52 0.49 0.36 0.22 0.13 0.08 0.05 0.04
0.06 0.09 0.12 0.11 0.09 0.09 0.12 0.15 0.15 0.08 0.06 0.06 0.07 0.06 0.06 0.07 0.11 0.18 0.20 0.21 0.23 0.24 0.23 0.25 0.31 0.33 0.36 0.47 0.62 0.71 0.67 0.77 0.97 0.99 0.94 0.94 0.96 0.95 1.02 0.97 0.85 0.79 0.72 0.55 0.42 0.34 0.21 0.13 0.09
0.12 0.11 0.08 0.06 0.04 0.04 0.04 0.05 0.07 0.05 0.04 0.05 0.06 0.05 0.04 0.05 0.06 0.09 0.12 0.15 0.16 0.17 0.19 0.23 0.29 0.32 0.33 0.41 0.52 0.59 0.68 0.85 1.06 1.11 1.17 1.27 1.26 1.23 1.29 1.31 1.22 1.08 0.91 0.82 0.76 0.75 0.55 0.34 0.17
0.03 0.01 0.01 0.01 0.01 0.01 0.01 0.03 0.05 0.06 0.05 0.05 0.05 0.05 0.04 0.05 0.04 0.05 0.07 0.09 0.10 0.10 0.12 0.17 0.25 0.35 0.40 0.46 0.60 0.75 0.96 1.08 1.21 1.36 1.34 1.35 1.38 1.37 1.39 1.51 1.56 1.41 1.27 1.24 1.09 1.06 0.99 0.72 0.43
0.01 0.01 0.01 0.01 0.00 0.00 0.01 0.02 0.04 0.06 0.07 0.08 0.07 0.07 0.06 0.04 0.04 0.04 0.04 0.06 0.09 0.08 0.10 0.16 0.30 0.49 0.69 0.80 1.03 1.31 1.56 1.62 1.54 1.53 1.56 1.54 1.56 1.56 1.49 1.55 1.66 1.57 1.45 1.38 1.40 1.42 1.45 1.21 0.90
0.00 0.00 0.01 0.00 0.00 0.00 0.00 0.02 0.04 0.10 0.14 0.15 0.14 0.13 0.11 0.11 0.09 0.07 0.08 0.08 0.09 0.11 0.20 0.36 0.60 0.90 1.15 1.30 1.49 1.70 1.81 1.84 1.76 1.76 1.74 1.71 1.62 1.51 1.45 1.53 1.67 1.70 1.71 1.68 1.67 1.52 1.55 1.53 1.25
0.00 0.00 0.00 0.00 0.00 0.00 0.00 0.02 0.07 0.16 0.24 0.27 0.28 0.27 0.25 0.24 0.18 0.19 0.21 0.22 0.28 0.38 0.57 0.86 1.11 1.36 1.51 1.56 1.66 1.85 1.99 2.13 2.14 2.01 1.86 1.74 1.68 1.59 1.47 1.47 1.52 1.52 1.53 1.58 1.62 1.52 1.53 1.50 1.49
0.01 0.02 0.02 0.02 0.02 0.01 0.01 0.04 0.16 0.25 0.30 0.36 0.38 0.34 0.32 0.30 0.29 0.35 0.44 0.54 0.69 0.81 0.99 1.20 1.34 1.49 1.50 1.50 1.55 1.66 1.82 1.98 2.00 2.01 1.97 1.83 1.67 1.54 1.43 1.36 1.40 1.43 1.38 1.43 1.47 1.44 1.50 1.46 1.43
0.03 0.07 0.07 0.05 0.05 0.05 0.06 0.18 0.27 0.26 0.27 0.33 0.36 0.35 0.34 0.34 0.41 0.57 0.72 0.85 0.98 1.09 1.19 1.22 1.21 1.26 1.29 1.31 1.33 1.38 1.42 1.44 1.47 1.55 1.46 1.33 1.23 1.17 1.15 1.07 1.08 1.14 1.17 1.29 1.26 1.14 1.11 1.17 1.21
0.01 0.04 0.10 0.09 0.08 0.11 0.15 0.36 0.40 0.31 0.25 0.25 0.27 0.33 0.43 0.57 0.68 0.77 0.88 0.97 1.01 1.14 1.20 1.15 1.12 1.11 1.04 0.99 1.03 1.03 1.05 1.07 1.05 1.00 0.94 0.86 0.83 0.79 0.76 0.76 0.74 0.76 0.79 0.93 1.06 0.98 0.93 0.90 0.92
0.01 0.03 0.09 0.18 0.13 0.12 0.20 0.44 0.44 0.29 0.23 0.22 0.24 0.32 0.48 0.70 0.94 1.08 1.08 0.99 0.90 0.94 1.02 1.00 0.95 0.91 0.83 0.77 0.81 0.83 0.85 0.84 0.78 0.72 0.65 0.61 0.56 0.54 0.52 0.52 0.55 0.56 0.57 0.64 0.70 0.81 0.80 0.72 0.71
0.02 0.05 0.13 0.23 0.22 0.23 0.31 0.47 0.43 0.32 0.28 0.25 0.30 0.40 0.58 0.80 1.00 1.24 1.38 1.27 1.00 0.80 0.81 0.78 0.76 0.79 0.78 0.74 0.75 0.75 0.65 0.59 0.59 0.59 0.52 0.49 0.51 0.50 0.48 0.43 0.38 0.39 0.40 0.49 0.56 0.56 0.58 0.56 0.59
0.04 0.10 0.16 0.20 0.23 0.34 0.56 0.70 0.60 0.49 0.44 0.43 0.47 0.54 0.61 0.88 1.17 1.31 1.36 1.23 1.05 0.78 0.69 0.68 0.66 0.70 0.76 0.69 0.71 0.70 0.60 0.47 0.43 0.41 0.38 0.36 0.35 0.39 0.38 0.35 0.35 0.32 0.31 0.33 0.33 0.34 0.36 0.36 0.37
0.11 0.19 0.27 0.35 0.39 0.41 0.54 0.65 0.53 0.55 0.61 0.56 0.60 0.70 0.72 0.78 0.83 0.85 0.96 0.97 0.91 0.78 0.70 0.75 0.80 0.79 0.71 0.65 0.61 0.58 0.51 0.43 0.42 0.39 0.34 0.33 0.32 0.33 0.34 0.34 0.35 0.35 0.37 0.36 0.34 0.31 0.28 0.30 0.30

GEFSSGP_prec_meanprecacc_054.txt.gz
Total_Precipitation_Accumulation
0.04 0.12 0.24 0.30 0.47 0.20 0.01 0.00 0.00 0.00 0.00 0.00 0.00 0.00 0.00 0.03 0.12 0.26 0.08 0.05 0.01 0.00 0.00 0.03 0.04 0.04 0.05 0.08 0.11 0.14 0.14 0.13 0.16 0.18 0.17 0.19 0.15 0.12 0.08 0.06 0.05 0.05 0.06 0.11 0.11 0.13 0.13 0.17 0.23
0.07 0.19 0.27 0.47 0.32 0.03 0.01 0.00 0.00 0.00 0.00 0.00 0.00 0.00 0.00 0.00 0.01 0.03 0.10 0.11 0.01 0.00 0.00 0.01 0.02 0.04 0.06 0.10 0.15 0.16 0.16 0.13 0.16 0.15 0.15 0.16 0.14 0.09 0.10 0.12 0.06 0.04 0.05 0.06 0.08 0.08 0.12 0.20 0.26
0.09 0.18 0.33 0.39 0.09 0.01 0.02 0.03 0.01 0.00 0.00 0.00 0.00 0.00 0.00 0.02 0.01 0.03 0.08 0.06 0.01 0.00 0.01 0.03 0.06 0.05 0.08 0.15 0.27 0.28 0.24 0.18 0.11 0.10 0.10 0.10 0.09 0.09 0.16 0.08 0.04 0.04 0.04 0.05 0.07 0.09 0.11 0.20 0.27
0.10 0.21 0.43 0.21 0.05 0.05 0.06 0.05 0.01 0.00 0.01 0.01 0.01 0.01 0.01 0.02 0.02 0.03 0.04 0.03 0.01 0.01 0.02 0.09 0.19 0.14 0.15 0.20 0.35 0.31 0.25 0.23 0.11 0.09 0.08 0.08 0.06 0.09 0.10 0.07 0.06 0.03 0.02 0.03 0.05 0.09 0.11 0.18 0.25
0.11 0.30 0.51 0.57 0.15 0.11 0.13 0.10 0.03 0.02 0.02 0.04 0.02 0.02 0.04 0.04 0.05 0.07 0.10 0.07 0.04 0.03 0.04 0.12 0.28 0.23 0.19 0.22 0.33 0.30 0.26 0.27 0.15 0.09 0.09 0.08 0.07 0.09 0.10 0.12 0.07 0.03 0.01 0.02 0.02 0.05 0.09 0.14 0.20
0.16 0.46 0.69 0.82 0.27 0.16 0.19 0.16 0.07 0.05 0.05 0.08 0.04 0.03 0.08 0.09 0.09 0.10 0.11 0.13 0.13 0.12 0.09 0.11 0.24 0.22 0.19 0.26 0.35 0.38 0.32 0.26 0.15 0.11 0.11 0.09 0.09 0.11 0.12 0.11 0.05 0.02 0.01 0.02 0.02 0.02 0.05 0.09 0.15
0.15 0.43 0.52 0.40 0.28 0.29 0.22 0.16 0.13 0.11 0.11 0.20 0.10 0.10 0.19 0.15 0.12 0.12 0.15 0.23 0.30 0.30 0.25 0.21 0.21 0.19 0.22 0.32 0.36 0.52 0.55 0.36 0.20 0.16 0.13 0.11 0.09 0.10 0.10 0.07 0.03 0.01 0.01 0.02 0.01 0.01 0.02 0.06 0.10
0.12 0.22 0.36 0.42 0.40 0.49 0.31 0.15 0.10 0.08 0.13 0.18 0.14 0.18 0.31 0.28 0.20 0.17 0.20 0.28 0.31 0.29 0.28 0.27 0.27 0.29 0.36 0.43 0.55 0.75 0.84 0.66 0.38 0.27 0.20 0.16 0.10 0.09 0.09 0.04 0.02 0.01 0.01 0.00 0.00 0.00 0.01 0.03 0.06
0.12 0.18 0.42 0.61 0.54 0.53 0.32 0.15 0.09 0.09 0.13 0.15 0.12 0.19 0.26 0.24 0.24 0.26 0.33 0.38 0.38 0.33 0.33 0.32 0.34 0.38 0.53 0.59 0.68 0.89 0.99 0.91 0.56 0.38 0.30 0.20 0.13 0.20 0.19 0.08 0.04 0.02 0.01 0.00 0.00 0.00 0.01 0.02 0.03
0.16 0.23 0.38 0.48 0.44 0.34 0.24 0.17 0.13 0.15 0.16 0.15 0.14 0.18 0.21 0.26 0.29 0.35 0.41 0.42 0.42 0.39 0.33 0.33 0.32 0.32 0.38 0.42 0.67 0.86 0.81 0.85 0.58 0.57 0.45 0.35 0.36 0.36 0.30 0.19 0.12 0.07 0.03 0.01 0.01 0.01 0.01 0.00 0.00
0.15 0.18 0.19 0.23 0.24 0.17 0.15 0.14 0.15 0.15 0.15 0.14 0.13 0.17 0.20 0.29 0.35 0.35 0.39 0.42 0.45 0.45 0.37 0.30 0.30 0.29 0.33 0.42 0.53 0.73 0.94 0.94 0.91 0.85 0.75 0.66 0.52 0.31 0.21 0.20 0.16 0.11 0.07 0.02 0.02 0.01 0.00 0.00 0.00
0.12 0.11 0.11 0.13 0.12 0.15 0.12 0.09 0.12 0.13 0.11 0.10 0.11 0.17 0.25 0.32 0.37 0.39 0.41 0.43 0.47 0.54 0.53 0.41 0.33 0.32 0.32 0.36 0.47 0.64 0.80 0.89 0.87 0.72 0.61 0.77 0.70 0.44 0.31 0.34 0.31 0.21 0.13 0.06 0.01 0.00 0.00 0.00 0.00
0.12 0.13 0.10 0.12 0.14 0.16 0.11 0.08 0.10 0.12 0.11 0.10 0.13 0.22 0.34 0.41 0.44 0.45 0.45 0.48 0.52 0.56 0.62 0.55 0.41 0.34 0.37 0.38 0.43 0.48 0.68 0.79 0.72 0.77 0.69 0.70 0.65 0.49 0.38 0.37 0.45 0.36 0.22 0.11 0.04 0.01 0.01 0.01 0.00
0.07 0.13 0.14 0.12 0.13 0.11 0.10 0.09 0.12 0.14 0.13 0.14 0.19 0.28 0.37 0.45 0.49 0.49 0.48 0.49 0.49 0.50 0.53 0.54 0.49 0.47 0.45 0.42 0.42 0.46 0.49 0.62 0.61 0.57 0.50 0.66 0.73 0.63 0.56 0.44 0.50 0.56 0.49 0.32 0.11 0.03 0.02 0.02 0.02
0.05 0.08 0.09 0.11 0.12 0.11 0.11 0.12 0.15 0.17 0.15 0.15 0.18 0.24 0.33 0.43 0.47 0.49 0.46 0.42 0.42 0.44 0.44 0.47 0.54 0.58 0.57 0.56 0.56 0.53 0.54 0.55 0.59 0.61 0.58 0.68 0.74 0.78 0.72 0.51 0.46 0.53 0.62 0.51 0.29 0.13 0.07 0.04 0.03
0.04 0.10 0.18 0.17 0.19 0.23 0.20 0.14 0.18 0.21 0.18 0.16 0.14 0.15 0.19 0.24 0.31 0.40 0.40 0.36 0.35 0.34 0.33 0.38 0.45 0.52 0.58 0.62 0.66 0.62 0.65 0.66 0.62 0.65 0.61 0.62 0.71 0.81 0.84 0.70 0.58 0.58 0.63 0.66 0.57 0.33 0.19 0.09 0.04
0.06 0.11 0.16 0.13 0.14 0.21 0.22 0.19 0.20 0.17 0.15 0.13 0.10 0.10 0.11 0.14 0.19 0.26 0.29 0.29 0.28 0.27 0.26 0.29 0.34 0.41 0.48 0.57 0.65 0.67 0.69 0.82 0.89 0.76 0.60 0.66 0.77 0.83 0.96 0.96 0.88 0.79 0.80 0.75 0.72 0.52 0.29 0.15 0.08
0.07 0.10 0.12 0.11 0.09 0.09 0.12 0.15 0.15 0.08 0.06 0.06 0.07 0.06 0.06 0.07 0.11 0.18 0.21 0.22 0.23 0.24 0.23 0.25 0.31 0.33 0.36 0.47 0.62 0.71 0.68 0.77 0.97 1.00 0.96 0.99 1.05 1.10 1.21 1.22 1.14 1.05 0.98 0.86 0.85 0.81 0.48 0.26 0.15
0.12 0.11 0.08 0.06 0.04 0.04 0.04 0.05 0.07 0.05 0.04 0.05 0.06 0.05 0.05 0.05 0.06 0.09 0.12 0.15 0.17 0.17 0.19 0.23 0.29 0.32 0.33 0.41 0.52 0.59 0.68 0.86 1.06 1.12 1.18 1.30 1.32 1.33 1.43 1.51 1.49 1.34 1.14 1.05 1.07 1.13 0.87 0.54 0.29
0.03 0.01 0.01 0.01 0.01 0.01 0.01 0.03 0.05 0.06 0.05 0.05 0.05 0.05 0.04 0.05 0.04 0.05 0.07 0.09 0.10 0.10 0.12 0.17 0.26 0.35 0.41 0.46 0.60 0.75 0.97 1.08 1.21 1.36 1.35 1.37 1.42 1.43 1.49 1.66 1.72 1.61 1.50 1.48 1.34 1.34 1.28 0.95 0.61
0.01 0.01 0.01 0.01 0.00 0.00 0.01 0.02 0.04 0.06 0.07 0.08 0.07 0.07 0.06 0.04 0.04 0.04 0.04 0.06 0.09 0.08 0.10 0.16 0.31 0.50 0.70 0.81 1.04 1.31 1.56 1.62 1.54 1.54 1.57 1.55 1.59 1.62 1.58 1.68 1.84 1.75 1.65 1.60 1.64 1.70 1.72 1.45 1.09
0.00 0.00 0.01 0.00 0.00 0.00 0.00 0.02 0.04 0.10 0.14 0.15 0.14 0.13 0.11 0.11 0.09 0.07 0.08 0.08 0.09 0.12 0.20 0.36 0.60 0.90 1.16 1.31 1.50 1.71 1.82 1.84 1.77 1.79 1.76 1.73 1.65 1.56 1.52 1.62 1.81 1.92 1.95 1.93 1.93 1.80 1.86 1.80 1.46
0.00 0.00 0.00 0.00 0.00 0.00 0.00 0.02 0.07 0.16 0.24 0.27 0.28 0.27 0.25 0.24 0.18 0.19 0.21 0.22 0.28 0.39 0.57 0.86 1.12 1.37 1.52 1.57 1.67 1.87 2.02 2.16 2.17 2.05 1.90 1.77 1.72 1.63 1.54 1.57 1.63 1.66 1.71 1.78 1.86 1.81 1.86 1.81 1.75
0.01 0.02 0.02 0.02 0.02 0.01 0.01 0.05 0.16 0.26 0.31 0.36 0.38 0.34 0.32 0.30 0.29 0.35 0.45 0.55 0.70 0.82 1.00 1.20 1.35 1.50 1.50 1.51 1.57 1.70 1.88 2.03 2.05 2.07 2.03 1.88 1.71 1.60 1.51 1.45 1.53 1.55 1.54 1.63 1.70 1.72 1.82 1.83 1.78
0.03 0.07 0.07 0.05 0.05 0.05 0.06 0.18 0.27 0.26 0.27 0.33 0.36 0.35 0.34 0.34 0.41 0.57 0.72 0.86 0.98 1.09 1.19 1.22 1.22 1.27 1.30 1.32 1.35 1.42 1.49 1.51 1.56 1.66 1.57 1.43 1.31 1.25 1.25 1.18 1.20 1.30 1.35 1.50 1.51 1.42 1.40 1.49 1.53
0.01 0.04 0.10 0.09 0.08 0.11 0.15 0.36 0.40 0.31 0.25 0.25 0.27 0.33 0.43 0.57 0.68 0.77 0.88 0.97 1.01 1.14 1.20 1.16 1.13 1.12 1.06 1.00 1.05 1.06 1.10 1.14 1.16 1.16 1.08 1.00 0.96 0.94 0.90 0.90 0.89 0.92 0.98 1.16 1.31 1.27 1.24 1.25 1.27
0.01 0.03 0.09 0.18 0.14 0.13 0.20 0.44 0.44 0.29 0.23 0.22 0.24 0.32 0.48 0.70 0.94 1.08 1.08 0.99 0.90 0.94 1.02 1.01 0.97 0.92 0.84 0.78 0.82 0.85 0.91 0.92 0.88 0.84 0.76 0.73 0.70 0.69 0.67 0.69 0.75 0.79 0.78 0.85 0.95 1.09 1.14 1.12 1.14
0.02 0.05 0.13 0.23 0.22 0.23 0.31 0.47 0.43 0.32 0.28 0.25 0.30 0.40 0.58 0.80 1.00 1.24 1.38 1.27 1.00 0.80 0.82 0.79 0.76 0.80 0.79 0.75 0.77 0.76 0.69 0.63 0.63 0.65 0.59 0.56 0.59 0.61 0.60 0.56 0.56 0.60 0.59 0.66 0.75 0.80 0.88 0.89 1.00
0.04 0.10 0.16 0.20 0.23 0.34 0.56 0.70 0.60 0.49 0.44 0.43 0.47 0.54 0.61 0.88 1.17 1.31 1.36 1.23 1.05 0.78 0.69 0.68 0.66 0.70 0.76 0.70 0.71 0.71 0.61 0.48 0.45 0.45 0.43 0.41 0.41 0.47 0.47 0.47 0.50 0.49 0.47 0.47 0.47 0.50 0.56 0.60 0.66
0.11 0.19 0.27 0.35 0.39 0.41 0.54 0.65 0.53 0.55 0.61 0.56 0.60 0.70 0.72 0.78 0.83 0.85 0.96 0.97 0.91 0.78 0.71 0.75 0.80 0.79 0.71 0.65 0.62 0.58 0.51 0.43 0.42 0.41 0.36 0.36 0.36 0.39 0.39 0.41 0.45 0.45 0.49 0.48 0.46 0.45 0.45 0.50 0.56

GEFSSGP_prec_meanprecacc_060.txt.gz
Total_Precipitation_Accumulation
0.06 0.18 0.30 0.37 0.53 0.22 0.01 0.00 0.00 0.00 0.00 0.00 0.00 0.00 0.01 0.05 0.14 0.28 0.09 0.05 0.01 0.00 0.00 0.04 0.06 0.06 0.06 0.09 0.13 0.15 0.15 0.14 0.17 0.19 0.18 0.20 0.16 0.12 0.08 0.06 0.05 0.05 0.06 0.11 0.12 0.13 0.13 0.18 0.23
0.10 0.25 0.35 0.55 0.34 0.04 0.03 0.02 0.00 0.00 0.01 0.01 0.00 0.00 0.02 0.02 0.05 0.08 0.14 0.13 0.01 0.00 0.00 0.01 0.04 0.06 0.08 0.11 0.17 0.18 0.17 0.14 0.17 0.16 0.16 0.16 0.14 0.09 0.11 0.12 0.06 0.04 0.05 0.07 0.08 0.08 0.12 0.20 0.26
0.16 0.27 0.43 0.45 0.12 0.06 0.09 0.08 0.04 0.02 0.01 0.01 0.00 0.01 0.02 0.04 0.09 0.14 0.14 0.06 0.01 0.00 0.01 0.04 0.08 0.08 0.10 0.17 0.29 0.29 0.25 0.19 0.12 0.11 0.11 0.11 0.09 0.09 0.16 0.09 0.04 0.04 0.04 0.05 0.08 0.10 0.11 0.20 0.27
0.21 0.33 0.52 0.26 0.11 0.14 0.18 0.15 0.07 0.04 0.02 0.02 0.01 0.02 0.03 0.06 0.11 0.15 0.12 0.06 0.03 0.03 0.04 0.13 0.26 0.21 0.20 0.25 0.39 0.33 0.27 0.24 0.12 0.10 0.09 0.09 0.07 0.09 0.11 0.08 0.06 0.03 0.02 0.03 0.06 0.10 0.12 0.20 0.26
0.18 0.39 0.57 0.64 0.25 0.26 0.28 0.24 0.11 0.08 0.07 0.06 0.03 0.04 0.05 0.10 0.19 0.27 0.29 0.20 0.13 0.11 0.10 0.20 0.39 0.33 0.28 0.31 0.41 0.37 0.32 0.31 0.17 0.11 0.10 0.09 0.07 0.09 0.10 0.12 0.07 0.03 0.01 0.02 0.03 0.06 0.10 0.16 0.22
0.21 0.50 0.75 0.90 0.41 0.33 0.38 0.36 0.20 0.16 0.11 0.11 0.08 0.09 0.11 0.16 0.27 0.39 0.43 0.44 0.40 0.35 0.24 0.23 0.37 0.34 0.31 0.37 0.45 0.47 0.39 0.32 0.19 0.15 0.14 0.11 0.10 0.11 0.12 0.12 0.06 0.02 0.01 0.02 0.02 0.03 0.06 0.11 0.17
0.18 0.45 0.56 0.47 0.42 0.51 0.45 0.34 0.29 0.24 0.19 0.26 0.17 0.18 0.27 0.25 0.28 0.36 0.49 0.67 0.77 0.72 0.56 0.42 0.37 0.33 0.35 0.44 0.47 0.62 0.65 0.46 0.28 0.22 0.18 0.15 0.12 0.12 0.12 0.08 0.04 0.02 0.02 0.02 0.01 0.01 0.03 0.08 0.13
0.14 0.24 0.39 0.47 0.49 0.63 0.47 0.29 0.20 0.19 0.21 0.24 0.21 0.25 0.38 0.37 0.37 0.45 0.55 0.70 0.73 0.71 0.68 0.62 0.57 0.52 0.52 0.56 0.68 0.90 1.00 0.80 0.50 0.35 0.27 0.22 0.15 0.13 0.12 0.07 0.04 0.02 0.02 0.01 0.01 0.00 0.01 0.04 0.08
0.14 0.20 0.43 0.65 0.60 0.60 0.41 0.24 0.14 0.12 0.17 0.20 0.15 0.22 0.30 0.30 0.36 0.50 0.62 0.71 0.72 0.67 0.67 0.66 0.68 0.70 0.79 0.81 0.87 1.09 1.20 1.10 0.73 0.50 0.41 0.29 0.18 0.24 0.23 0.11 0.07 0.04 0.03 0.02 0.01 0.01 0.02 0.03 0.05
0.18 0.24 0.39 0.50 0.47 0.37 0.28 0.21 0.16 0.17 0.18 0.17 0.16 0.20 0.23 0.30 0.37 0.47 0.55 0.58 0.61 0.63 0.60 0.61 0.60 0.61 0.67 0.71 1.00 1.20 1.09 1.13 0.82 0.73 0.59 0.46 0.43 0.42 0.34 0.22 0.16 0.11 0.07 0.04 0.03 0.02 0.02 0.02 0.01
0.16 0.19 0.20 0.25 0.27 0.19 0.17 0.17 0.17 0.17 0.17 0.15 0.14 0.18 0.22 0.31 0.38 0.40 0.44 0.47 0.51 0.54 0.48 0.45 0.48 0.48 0.52 0.61 0.77 1.02 1.24 1.27 1.20 1.10 0.93 0.80 0.62 0.38 0.28 0.24 0.21 0.16 0.14 0.09 0.07 0.04 0.02 0.01 0.00
0.12 0.11 0.12 0.15 0.13 0.17 0.14 0.11 0.14 0.14 0.13 0.11 0.12 0.17 0.25 0.33 0.38 0.40 0.42 0.44 0.49 0.56 0.56 0.46 0.41 0.44 0.44 0.47 0.61 0.82 1.01 1.15 1.15 1.03 0.88 0.97 0.84 0.56 0.39 0.40 0.38 0.28 0.22 0.17 0.11 0.05 0.02 0.01 0.01
0.13 0.15 0.12 0.14 0.16 0.17 0.12 0.09 0.11 0.12 0.11 0.10 0.13 0.22 0.34 0.41 0.45 0.45 0.45 0.48 0.52 0.56 0.62 0.56 0.43 0.37 0.42 0.45 0.50 0.58 0.80 0.94 0.91 1.00 0.94 0.94 0.86 0.65 0.50 0.46 0.55 0.46 0.33 0.25 0.17 0.09 0.05 0.02 0.01
0.08 0.15 0.15 0.13 0.15 0.13 0.11 0.10 0.13 0.15 0.14 0.14 0.19 0.28 0.37 0.45 0.49 0.49 0.48 0.49 0.49 0.50 0.53 0.54 0.49 0.47 0.45 0.43 0.43 0.48 0.53 0.69 0.70 0.69 0.66 0.83 0.88 0.79 0.71 0.56 0.61 0.70 0.64 0.47 0.28 0.17 0.08 0.04 0.02
0.08 0.09 0.10 0.12 0.14 0.12 0.12 0.12 0.15 0.17 0.15 0.15 0.18 0.24 0.33 0.43 0.47 0.49 0.46 0.42 0.42 0.44 0.44 0.47 0.54 0.58 0.57 0.57 0.57 0.54 0.55 0.57 0.63 0.69 0.69 0.79 0.86 0.90 0.86 0.64 0.59 0.68 0.81 0.72 0.48 0.28 0.15 0.07 0.03
0.07 0.11 0.19 0.18 0.20 0.24 0.20 0.14 0.18 0.21 0.19 0.16 0.14 0.15 0.19 0.24 0.31 0.40 0.40 0.36 0.35 0.34 0.33 0.38 0.45 0.52 0.58 0.62 0.66 0.62 0.65 0.67 0.64 0.68 0.66 0.69 0.81 0.93 0.96 0.82 0.71 0.77 0.86 0.92 0.85 0.56 0.32 0.16 0.07
0.07 0.12 0.16 0.13 0.15 0.21 0.22 0.20 0.20 0.17 0.15 0.13 0.11 0.10 0.12 0.14 0.19 0.26 0.29 0.29 0.28 0.27 0.26 0.29 0.34 0.41 0.48 0.57 0.65 0.67 0.69 0.82 0.89 0.77 0.61 0.68 0.81 0.89 1.04 1.05 0.97 0.93 1.00 0.98 0.96 0.78 0.51 0.30 0.17
0.07 0.10 0.12 0.11 0.09 0.10 0.13 0.15 0.15 0.08 0.06 0.06 0.07 0.06 0.06 0.08 0.11 0.18 0.21 0.22 0.23 0.24 0.23 0.25 0.31 0.33 0.36 0.47 0.62 0.71 0.68 0.77 0.98 1.01 0.96 1.00 1.06 1.13 1.25 1.29 1.23 1.17 1.15 1.05 1.08 1.08 0.74 0.48 0.33
0.12 0.11 0.08 0.06 0.04 0.04 0.04 0.05 0.07 0.05 0.04 0.05 0.06 0.05 0.05 0.05 0.06 0.09 0.12 0.15 0.17 0.17 0.19 0.23 0.29 0.32 0.33 0.41 0.52 0.59 0.68 0.86 1.06 1.13 1.18 1.30 1.32 1.34 1.46 1.54 1.54 1.41 1.24 1.19 1.26 1.41 1.19 0.81 0.55
0.03 0.01 0.01 0.01 0.01 0.01 0.01 0.03 0.05 0.06 0.05 0.05 0.05 0.05 0.04 0.05 0.04 0.05 0.07 0.10 0.11 0.10 0.12 0.17 0.26 0.35 0.41 0.46 0.60 0.75 0.97 1.08 1.21 1.36 1.35 1.37 1.42 1.44 1.50 1.68 1.75 1.64 1.55 1.58 1.50 1.55 1.57 1.25 0.89
0.01 0.01 0.01 0.01 0.00 0.00 0.01 0.02 0.04 0.06 0.07 0.08 0.07 0.07 0.06 0.04 0.04 0.04 0.04 0.06 0.09 0.08 0.10 0.17 0.31 0.50 0.70 0.81 1.04 1.32 1.56 1.62 1.54 1.54 1.57 1.56 1.59 1.62 1.59 1.69 1.86 1.77 1.69 1.66 1.75 1.87 1.97 1.76 1.42
0.00 0.00 0.01 0.00 0.00 0.00 0.00 0.02 0.04 0.10 0.14 0.15 0.14 0.13 0.11 0.11 0.09 0.07 0.08 0.08 0.09 0.12 0.20 0.36 0.60 0.90 1.16 1.31 1.51 1.71 1.82 1.85 1.77 1.79 1.76 1.74 1.65 1.56 1.53 1.64 1.83 1.94 1.99 1.98 2.01 1.92 2.05 2.08 1.80
0.00 0.00 0.00 0.00 0.00 0.00 0.00 0.02 0.07 0.16 0.24 0.27 0.28 0.27 0.25 0.24 0.18 0.19 0.21 0.22 0.28 0.39 0.57 0.86 1.12 1.37 1.52 1.58 1.67 1.87 2.02 2.17 2.18 2.06 1.91 1.79 1.73 1.65 1.55 1.59 1.65 1.68 1.73 1.82 1.93 1.92 2.02 2.02 2.01
0.01 0.02 0.02 0.02 0.02 0.01 0.01 0.05 0.16 0.26 0.31 0.36 0.38 0.34 0.32 0.30 0.29 0.35 0.45 0.55 0.70 0.82 1.00 1.20 1.35 1.50 1.50 1.51 1.57 1.70 1.89 2.05 2.06 2.08 2.04 1.89 1.73 1.62 1.53 1.48 1.56 1.58 1.57 1.66 1.75 1.81 1.94 2.00 2.01
0.03 0.07 0.07 0.05 0.05 0.05 0.06 0.18 0.27 0.26 0.27 0.33 0.36 0.35 0.34 0.34 0.41 0.57 0.72 0.86 0.98 1.09 1.19 1.22 1.22 1.27 1.30 1.32 1.35 1.42 1.50 1.52 1.57 1.69 1.60 1.46 1.33 1.27 1.27 1.20 1.24 1.35 1.39 1.55 1.58 1.51 1.53 1.63 1.72
0.01 0.04 0.10 0.09 0.08 0.11 0.15 0.36 0.40 0.31 0.25 0.25 0.27 0.33 0.43 0.57 0.68 0.77 0.88 0.97 1.01 1.14 1.20 1.16 1.13 1.12 1.06 1.00 1.05 1.06 1.11 1.16 1.18 1.20 1.15 1.07 1.01 0.98 0.94 0.94 0.93 0.98 1.05 1.23 1.40 1.36 1.37 1.40 1.43
0.01 0.03 0.09 0.18 0.14 0.13 0.20 0.44 0.44 0.29 0.23 0.22 0.24 0.32 0.48 0.70 0.94 1.08 1.08 0.99 0.90 0.94 1.02 1.01 0.97 0.92 0.84 0.78 0.82 0.85 0.91 0.94 0.93 0.90 0.85 0.82 0.76 0.75 0.73 0.75 0.83 0.87 0.85 0.92 1.01 1.17 1.23 1.24 1.29
0.02 0.05 0.13 0.23 0.22 0.23 0.31 0.47 0.43 0.32 0.28 0.25 0.30 0.40 0.58 0.80 1.00 1.24 1.38 1.27 1.00 0.80 0.82 0.79 0.76 0.80 0.79 0.75 0.77 0.77 0.70 0.64 0.66 0.69 0.63 0.61 0.64 0.67 0.67 0.63 0.64 0.68 0.68 0.77 0.84 0.88 0.97 1.00 1.13
0.04 0.10 0.16 0.20 0.23 0.34 0.56 0.70 0.60 0.49 0.44 0.43 0.47 0.54 0.61 0.88 1.17 1.31 1.36 1.23 1.05 0.78 0.69 0.68 0.66 0.70 0.76 0.70 0.72 0.71 0.61 0.49 0.46 0.46 0.44 0.43 0.45 0.51 0.52 0.54 0.57 0.56 0.57 0.57 0.56 0.59 0.65 0.70 0.78
0.11 0.19 0.27 0.35 0.39 0.41 0.54 0.65 0.53 0.55 0.61 0.56 0.60 0.70 0.72 0.78 0.83 0.85 0.96 0.97 0.91 0.78 0.71 0.75 0.80 0.79 0.71 0.65 0.62 0.58 0.51 0.44 0.43 0.41 0.37 0.38 0.39 0.43 0.44 0.48 0.51 0.50 0.56 0.58 0.55 0.53 0.52 0.58 0.65

GEFSSGP_prec_meanprecacc_066.txt.gz
Total_Precipitation_Accumulation
0.10 0.22 0.36 0.43 0.56 0.23 0.03 0.03 0.03 0.04 0.04 0.01 0.02 0.04 0.07 0.12 0.22 0.34 0.14 0.07 0.02 0.01 0.02 0.06 0.10 0.10 0.09 0.13 0.17 0.20 0.21 0.19 0.20 0.21 0.20 0.21 0.16 0.12 0.08 0.06 0.05 0.05 0.07 0.11 0.12 0.13 0.13 0.18 0.24
0.13 0.31 0.46 0.60 0.36 0.06 0.07 0.07 0.07 0.05 0.03 0.02 0.02 0.03 0.05 0.05 0.07 0.16 0.25 0.18 0.02 0.01 0.02 0.05 0.10 0.13 0.15 0.18 0.25 0.25 0.24 0.20 0.22 0.20 0.19 0.18 0.16 0.10 0.11 0.12 0.06 0.05 0.05 0.07 0.09 0.10 0.13 0.21 0.26
0.19 0.34 0.50 0.48 0.15 0.10 0.17 0.14 0.08 0.04 0.02 0.02 0.03 0.04 0.06 0.08 0.16 0.27 0.29 0.14 0.03 0.03 0.05 0.12 0.20 0.20 0.23 0.29 0.41 0.41 0.37 0.29 0.22 0.19 0.17 0.15 0.12 0.12 0.18 0.09 0.04 0.04 0.04 0.05 0.08 0.10 0.13 0.21 0.27
0.25 0.36 0.54 0.29 0.17 0.22 0.27 0.21 0.10 0.08 0.04 0.03 0.03 0.04 0.05 0.10 0.20 0.31 0.26 0.12 0.07 0.09 0.12 0.25 0.43 0.37 0.36 0.41 0.55 0.48 0.42 0.38 0.27 0.25 0.21 0.19 0.14 0.15 0.14 0.09 0.07 0.04 0.03 0.04 0.06 0.10 0.12 0.20 0.26
0.20 0.42 0.61 0.70 0.35 0.35 0.33 0.27 0.13 0.12 0.11 0.07 0.05 0.08 0.09 0.14 0.31 0.42 0.39 0.25 0.19 0.20 0.19 0.31 0.54 0.49 0.44 0.47 0.56 0.52 0.49 0.49 0.37 0.28 0.25 0.22 0.20 0.19 0.17 0.17 0.10 0.05 0.03 0.03 0.03 0.06 0.11 0.16 0.23
0.23 0.52 0.78 0.94 0.49 0.41 0.43 0.38 0.22 0.20 0.17 0.14 0.11 0.14 0.17 0.21 0.35 0.50 0.53 0.51 0.47 0.42 0.32 0.31 0.47 0.46 0.45 0.53 0.61 0.63 0.57 0.51 0.38 0.33 0.31 0.26 0.24 0.25 0.23 0.21 0.12 0.07 0.05 0.04 0.03 0.04 0.07 0.12 0.18
0.20 0.47 0.58 0.49 0.48 0.59 0.50 0.36 0.32 0.29 0.26 0.31 0.20 0.26 0.34 0.30 0.34 0.44 0.59 0.76 0.88 0.82 0.66 0.53 0.47 0.44 0.46 0.57 0.63 0.80 0.83 0.64 0.47 0.40 0.35 0.30 0.28 0.28 0.27 0.21 0.14 0.10 0.08 0.06 0.04 0.02 0.04 0.09 0.13
0.15 0.25 0.41 0.50 0.53 0.70 0.50 0.31 0.22 0.21 0.23 0.25 0.22 0.28 0.40 0.39 0.41 0.53 0.67 0.81 0.84 0.83 0.81 0.75 0.74 0.68 0.65 0.66 0.81 1.07 1.20 1.01 0.69 0.53 0.44 0.41 0.32 0.28 0.28 0.20 0.14 0.12 0.10 0.08 0.06 0.04 0.03 0.06 0.09
0.15 0.22 0.46 0.68 0.63 0.64 0.43 0.25 0.15 0.12 0.18 0.20 0.16 0.23 0.31 0.31 0.38 0.56 0.71 0.80 0.82 0.80 0.80 0.79 0.82 0.85 0.95 0.94 0.99 1.23 1.38 1.32 0.93 0.69 0.61 0.51 0.36 0.43 0.40 0.24 0.21 0.16 0.15 0.13 0.12 0.08 0.05 0.05 0.06
0.19 0.27 0.42 0.52 0.48 0.38 0.29 0.22 0.17 0.17 0.18 0.17 0.17 0.20 0.23 0.31 0.38 0.49 0.58 0.62 0.67 0.70 0.69 0.71 0.73 0.72 0.78 0.84 1.14 1.35 1.25 1.31 1.00 0.93 0.80 0.67 0.65 0.63 0.50 0.36 0.32 0.27 0.26 0.22 0.18 0.13 0.09 0.05 0.03
0.17 0.20 0.21 0.25 0.27 0.19 0.18 0.18 0.17 0.18 0.17 0.15 0.14 0.18 0.22 0.31 0.38 0.40 0.44 0.48 0.52 0.56 0.50 0.47 0.52 0.52 0.57 0.66 0.84 1.11 1.35 1.38 1.34 1.26 1.13 1.00 0.85 0.62 0.49 0.43 0.36 0.33 0.32 0.27 0.24 0.19 0.12 0.07 0.04
0.13 0.12 0.13 0.15 0.14 0.17 0.14 0.12 0.14 0.15 0.13 0.11 0.12 0.18 0.25 0.33 0.38 0.40 0.42 0.44 0.49 0.56 0.57 0.48 0.42 0.46 0.46 0.49 0.63 0.87 1.09 1.23 1.24 1.14 1.03 1.15 1.03 0.76 0.60 0.59 0.55 0.47 0.41 0.39 0.34 0.24 0.14 0.08 0.04
0.14 0.15 0.13 0.15 0.17 0.18 0.12 0.09 0.11 0.12 0.11 0.10 0.13 0.22 0.34 0.41 0.45 0.45 0.45 0.48 0.52 0.56 0.62 0.56 0.43 0.37 0.42 0.45 0.51 0.59 0.83 0.98 0.97 1.08 1.03 1.05 0.98 0.81 0.66 0.60 0.70 0.62 0.51 0.45 0.40 0.29 0.20 0.13 0.08
0.09 0.15 0.16 0.14 0.15 0.13 0.12 0.10 0.13 0.15 0.14 0.14 0.19 0.28 0.37 0.45 0.49 0.49 0.48 0.49 0.49 0.50 0.53 0.54 0.49 0.47 0.46 0.43 0.43 0.48 0.54 0.70 0.72 0.72 0.71 0.89 0.95 0.89 0.86 0.69 0.73 0.84 0.81 0.65 0.50 0.39 0.26 0.17 0.11
0.08 0.10 0.11 0.13 0.14 0.12 0.12 0.12 0.15 0.17 0.16 0.16 0.19 0.24 0.33 0.43 0.47 0.49 0.46 0.42 0.42 0.44 0.44 0.47 0.54 0.58 0.57 0.57 0.57 0.54 0.55 0.57 0.64 0.71 0.71 0.82 0.90 0.96 0.94 0.75 0.72 0.81 0.97 0.88 0.68 0.48 0.33 0.19 0.10
0.08 0.13 0.21 0.18 0.20 0.24 0.21 0.15 0.18 0.21 0.19 0.16 0.14 0.16 0.19 0.24 0.31 0.40 0.40 0.36 0.35 0.34 0.33 0.38 0.45 0.52 0.58 0.62 0.66 0.62 0.66 0.67 0.65 0.69 0.67 0.70 0.84 0.98 1.02 0.90 0.82 0.90 1.01 1.08 1.04 0.76 0.51 0.29 0.15
0.09 0.13 0.17 0.14 0.15 0.21 0.22 0.20 0.20 0.17 0.15 0.13 0.11 0.10 0.12 0.14 0.19 0.26 0.29 0.29 0.28 0.27 0.26 0.29 0.34 0.41 0.48 0.57 0.65 0.67 0.69 0.82 0.89 0.77 0.62 0.69 0.83 0.92 1.08 1.09 1.03 1.02 1.10 1.09 1.09 0.94 0.66 0.44 0.29
0.08 0.10 0.12 0.12 0.09 0.10 0.13 0.15 0.15 0.08 0.06 0.06 0.07 0.06 0.06 0.08 0.11 0.18 0.21 0.22 0.23 0.24 0.23 0.25 0.31 0.33 0.36 0.47 0.63 0.71 0.68 0.77 0.98 1.01 0.97 1.01 1.08 1.14 1.27 1.31 1.27 1.22 1.21 1.12 1.18 1.22 0.89 0.63 0.50
0.12 0.11 0.08 0.06 0.04 0.05 0.05 0.06 0.07 0.05 0.04 0.05 0.06 0.05 0.05 0.05 0.06 0.09 0.12 0.15 0.17 0.17 0.19 0.23 0.29 0.32 0.33 0.42 0.52 0.60 0.68 0.86 1.07 1.13 1.19 1.31 1.33 1.35 1.47 1.56 1.56 1.44 1.29 1.25 1.36 1.56 1.37 0.97 0.70
0.03 0.01 0.01 0.01 0.01 0.01 0.02 0.03 0.05 0.06 0.05 0.05 0.05 0.05 0.04 0.05 0.04 0.05 0.07 0.10 0.11 0.10 0.12 0.17 0.26 0.35 0.41 0.47 0.61 0.75 0.97 1.09 1.22 1.37 1.36 1.38 1.43 1.45 1.51 1.70 1.78 1.67 1.59 1.63 1.56 1.64 1.70 1.41 1.05
0.01 0.01 0.01 0.01 0.00 0.00 0.01 0.02 0.04 0.06 0.07 0.08 0.07 0.07 0.06 0.04 0.04 0.04 0.04 0.06 0.09 0.08 0.10 0.17 0.31 0.50 0.70 0.81 1.04 1.32 1.56 1.63 1.55 1.54 1.58 1.56 1.60 1.63 1.60 1.70 1.88 1.81 1.73 1.70 1.80 1.93 2.07 1.92 1.59
0.00 0.00 0.01 0.00 0.00 0.00 0.00 0.02 0.04 0.10 0.14 0.15 0.14 0.13 0.11 0.11 0.09 0.07 0.08 0.08 0.09 0.12 0.20 0.36 0.60 0.90 1.16 1.31 1.51 1.71 1.82 1.85 1.78 1.79 1.77 1.74 1.66 1.57 1.54 1.66 1.85 1.97 2.02 2.02 2.05 1.97 2.14 2.22 1.97
0.00 0.00 0.00 0.00 0.00 0.00 0.00 0.02 0.07 0.16 0.24 0.27 0.28 0.27 0.25 0.24 0.18 0.19 0.21 0.22 0.28 0.39 0.57 0.86 1.12 1.37 1.52 1.58 1.67 1.87 2.03 2.17 2.19 2.07 1.92 1.80 1.75 1.66 1.57 1.60 1.67 1.71 1.76 1.86 1.97 1.97 2.09 2.13 2.15
0.01 0.02 0.02 0.02 0.02 0.01 0.01 0.05 0.16 0.26 0.31 0.36 0.38 0.34 0.32 0.30 0.29 0.35 0.45 0.55 0.70 0.82 1.00 1.20 1.35 1.50 1.50 1.51 1.57 1.71 1.89 2.05 2.07 2.08 2.04 1.91 1.75 1.63 1.55 1.49 1.57 1.60 1.59 1.69 1.78 1.85 1.99 2.06 2.11
0.03 0.07 0.07 0.05 0.05 0.05 0.06 0.18 0.27 0.26 0.27 0.33 0.36 0.35 0.34 0.34 0.41 0.57 0.72 0.86 0.98 1.09 1.19 1.22 1.22 1.27 1.30 1.32 1.35 1.42 1.50 1.53 1.59 1.69 1.61 1.47 1.34 1.29 1.28 1.21 1.25 1.36 1.41 1.57 1.62 1.55 1.58 1.69 1.80
0.01 0.04 0.10 0.09 0.08 0.11 0.15 0.36 0.40 0.31 0.25 0.25 0.27 0.33 0.43 0.57 0.68 0.77 0.88 0.97 1.01 1.14 1.20 1.16 1.13 1.12 1.06 1.00 1.05 1.06 1.11 1.17 1.20 1.22 1.17 1.09 1.03 0.99 0.96 0.96 0.95 1.00 1.07 1.27 1.44 1.41 1.42 1.46 1.51
0.01 0.03 0.09 0.18 0.14 0.13 0.20 0.44 0.44 0.29 0.23 0.22 0.24 0.32 0.48 0.70 0.94 1.08 1.08 0.99 0.90 0.94 1.02 1.01 0.97 0.92 0.84 0.78 0.82 0.85 0.91 0.94 0.93 0.91 0.86 0.84 0.78 0.77 0.75 0.77 0.84 0.88 0.87 0.95 1.05 1.22 1.29 1.31 1.36
0.02 0.05 0.13 0.23 0.22 0.23 0.31 0.47 0.43 0.32 0.28 0.25 0.30 0.40 0.58 0.80 1.00 1.24 1.38 1.27 1.00 0.80 0.82 0.79 0.76 0.80 0.79 0.75 0.77 0.77 0.70 0.64 0.66 0.69 0.63 0.62 0.66 0.69 0.69 0.66 0.66 0.70 0.70 0.79 0.87 0.92 1.02 1.07 1.19
0.04 0.10 0.16 0.20 0.23 0.34 0.56 0.70 0.60 0.49 0.44 0.43 0.47 0.54 0.61 0.88 1.17 1.31 1.36 1.23 1.05 0.78 0.69 0.68 0.66 0.70 0.76 0.70 0.72 0.71 0.61 0.49 0.47 0.47 0.45 0.44 0.47 0.53 0.54 0.56 0.61 0.59 0.59 0.60 0.60 0.64 0.70 0.76 0.84
0.11 0.19 0.27 0.35 0.39 0.41 0.54 0.65 0.53 0.55 0.61 0.56 0.60 0.70 0.72 0.78 0.83 0.85 0.96 0.97 0.91 0.78 0.71 0.75 0.80 0.79 0.71 0.65 0.62 0.58 0.51 0.44 0.43 0.41 0.38 0.39 0.44 0.46 0.46 0.51 0.54 0.54 0.58 0.61 0.59 0.56 0.56 0.62 0.71

GEFSSGP_prec_meanprecacc_072.txt.gz
Total_Precipitation_Accumulation
0.11 0.26 0.51 0.66 0.79 0.46 0.17 0.10 0.06 0.08 0.06 0.02 0.02 0.05 0.14 0.28 0.42 0.53 0.29 0.11 0.04 0.04 0.06 0.09 0.15 0.15 0.15 0.17 0.22 0.26 0.28 0.27 0.28 0.29 0.25 0.25 0.19 0.14 0.09 0.07 0.06 0.05 0.07 0.11 0.12 0.14 0.13 0.18 0.24
0.15 0.40 0.62 0.81 0.63 0.30 0.27 0.18 0.14 0.08 0.04 0.02 0.02 0.04 0.10 0.08 0.11 0.27 0.38 0.23 0.04 0.04 0.07 0.16 0.20 0.21 0.24 0.27 0.33 0.33 0.33 0.30 0.32 0.31 0.27 0.24 0.20 0.14 0.15 0.15 0.09 0.06 0.06 0.07 0.09 0.10 0.13 0.21 0.27
0.24 0.43 0.65 0.68 0.34 0.30 0.37 0.25 0.12 0.05 0.02 0.02 0.03 0.05 0.09 0.12 0.23 0.40 0.43 0.21 0.07 0.07 0.12 0.23 0.29 0.28 0.31 0.38 0.50 0.51 0.46 0.39 0.33 0.31 0.28 0.25 0.21 0.20 0.25 0.15 0.08 0.07 0.06 0.06 0.09 0.11 0.13 0.21 0.28
0.31 0.46 0.67 0.48 0.34 0.33 0.35 0.27 0.12 0.09 0.05 0.03 0.04 0.06 0.07 0.13 0.27 0.43 0.36 0.20 0.13 0.15 0.18 0.32 0.48 0.42 0.41 0.47 0.62 0.55 0.50 0.47 0.38 0.37 0.34 0.33 0.28 0.29 0.26 0.18 0.15 0.10 0.07 0.07 0.08 0.12 0.13 0.21 0.27
0.27 0.55 0.80 0.88 0.49 0.42 0.35 0.28 0.14 0.14 0.12 0.07 0.06 0.14 0.14 0.20 0.37 0.48 0.43 0.29 0.23 0.25 0.24 0.35 0.57 0.53 0.49 0.54 0.64 0.60 0.57 0.59 0.46 0.39 0.37 0.34 0.32 0.32 0.31 0.30 0.21 0.14 0.10 0.08 0.07 0.09 0.12 0.18 0.25
0.34 0.65 0.97 1.12 0.63 0.48 0.45 0.39 0.23 0.21 0.17 0.15 0.12 0.22 0.24 0.28 0.38 0.52 0.55 0.53 0.50 0.45 0.34 0.34 0.49 0.49 0.49 0.59 0.68 0.71 0.66 0.60 0.47 0.42 0.40 0.36 0.35 0.38 0.37 0.35 0.25 0.18 0.14 0.11 0.10 0.08 0.09 0.14 0.20
0.32 0.61 0.70 0.58 0.59 0.71 0.54 0.36 0.32 0.31 0.29 0.32 0.21 0.33 0.42 0.36 0.36 0.45 0.60 0.77 0.90 0.83 0.68 0.55 0.49 0.46 0.49 0.61 0.68 0.86 0.91 0.73 0.56 0.50 0.45 0.40 0.38 0.40 0.40 0.35 0.28 0.21 0.18 0.16 0.12 0.09 0.08 0.11 0.15
0.19 0.32 0.47 0.54 0.61 0.81 0.53 0.31 0.22 0.21 0.24 0.26 0.23 0.31 0.44 0.41 0.42 0.54 0.68 0.82 0.86 0.84 0.82 0.76 0.75 0.69 0.68 0.70 0.84 1.10 1.23 1.05 0.76 0.61 0.54 0.51 0.43 0.39 0.40 0.31 0.27 0.25 0.23 0.21 0.18 0.14 0.09 0.09 0.11
0.16 0.27 0.55 0.73 0.67 0.68 0.43 0.25 0.15 0.12 0.18 0.20 0.16 0.23 0.31 0.31 0.39 0.56 0.72 0.81 0.83 0.81 0.82 0.80 0.83 0.87 0.98 0.98 1.03 1.27 1.42 1.36 0.97 0.74 0.68 0.57 0.43 0.52 0.53 0.36 0.37 0.34 0.34 0.31 0.26 0.20 0.15 0.12 0.09
0.20 0.32 0.51 0.57 0.49 0.38 0.29 0.22 0.17 0.17 0.19 0.17 0.17 0.20 0.23 0.31 0.38 0.49 0.58 0.63 0.67 0.70 0.70 0.72 0.74 0.74 0.80 0.86 1.17 1.38 1.29 1.36 1.06 0.99 0.88 0.75 0.74 0.75 0.61 0.49 0.47 0.44 0.45 0.38 0.32 0.26 0.20 0.11 0.06
0.17 0.22 0.23 0.27 0.27 0.19 0.18 0.18 0.17 0.18 0.19 0.16 0.15 0.18 0.22 0.31 0.38 0.40 0.44 0.48 0.52 0.56 0.50 0.47 0.52 0.53 0.57 0.67 0.85 1.13 1.38 1.43 1.39 1.32 1.20 1.10 0.96 0.74 0.62 0.57 0.50 0.48 0.49 0.41 0.41 0.33 0.21 0.12 0.09
0.13 0.12 0.13 0.15 0.14 0.17 0.14 0.12 0.14 0.15 0.14 0.11 0.12 0.18 0.25 0.33 0.38 0.40 0.42 0.44 0.49 0.57 0.57 0.48 0.42 0.46 0.46 0.50 0.64 0.88 1.10 1.25 1.27 1.18 1.07 1.22 1.12 0.88 0.76 0.78 0.73 0.66 0.63 0.66 0.63 0.47 0.31 0.19 0.11
0.16 0.17 0.13 0.15 0.17 0.18 0.12 0.09 0.11 0.12 0.11 0.10 0.13 0.22 0.34 0.41 0.45 0.45 0.45 0.48 0.52 0.56 0.62 0.56 0.43 0.37 0.42 0.45 0.51 0.59 0.84 0.99 0.99 1.11 1.06 1.09 1.06 0.91 0.80 0.78 0.90 0.82 0.75 0.76 0.73 0.55 0.40 0.30 0.20
0.14 0.21 0.18 0.14 0.15 0.13 0.12 0.10 0.13 0.15 0.14 0.14 0.19 0.28 0.37 0.45 0.49 0.49 0.48 0.49 0.49 0.50 0.53 0.54 0.49 0.47 0.46 0.43 0.43 0.48 0.54 0.71 0.73 0.74 0.72 0.92 1.00 0.96 0.97 0.84 0.90 1.01 1.01 0.90 0.79 0.68 0.49 0.38 0.30
0.09 0.10 0.11 0.13 0.14 0.12 0.12 0.13 0.16 0.17 0.16 0.16 0.19 0.24 0.33 0.43 0.47 0.49 0.46 0.42 0.42 0.44 0.44 0.47 0.54 0.58 0.57 0.57 0.57 0.54 0.55 0.58 0.64 0.72 0.73 0.84 0.92 0.98 0.98 0.84 0.86 0.97 1.14 1.07 0.92 0.77 0.61 0.39 0.28
0.08 0.13 0.22 0.19 0.21 0.24 0.21 0.16 0.18 0.21 0.19 0.16 0.14 0.16 0.19 0.24 0.31 0.40 0.40 0.36 0.35 0.34 0.33 0.38 0.45 0.52 0.58 0.62 0.66 0.62 0.66 0.67 0.65 0.70 0.68 0.71 0.86 1.00 1.05 0.94 0.89 1.02 1.18 1.28 1.27 1.04 0.84 0.60 0.41
0.10 0.15 0.19 0.16 0.16 0.22 0.22 0.20 0.21 0.17 0.15 0.13 0.11 0.10 0.12 0.14 0.19 0.26 0.29 0.29 0.28 0.27 0.26 0.29 0.34 0.41 0.48 0.57 0.65 0.67 0.69 0.83 0.91 0.79 0.64 0.71 0.84 0.94 1.10 1.13 1.07 1.09 1.22 1.25 1.26 1.16 0.93 0.78 0.61
0.11 0.15 0.16 0.15 0.11 0.10 0.13 0.16 0.15 0.08 0.06 0.06 0.07 0.06 0.06 0.08 0.11 0.18 0.21 0.22 0.23 0.24 0.23 0.25 0.31 0.33 0.36 0.47 0.64 0.73 0.70 0.80 1.01 1.04 1.01 1.04 1.10 1.16 1.30 1.34 1.30 1.28 1.30 1.23 1.31 1.41 1.11 0.88 0.81
0.16 0.14 0.10 0.07 0.05 0.05 0.05 0.06 0.07 0.05 0.04 0.05 0.06 0.05 0.05 0.05 0.06 0.09 0.12 0.15 0.17 0.17 0.19 0.23 0.29 0.32 0.34 0.42 0.53 0.62 0.72 0.90 1.10 1.16 1.21 1.34 1.36 1.38 1.50 1.59 1.59 1.49 1.36 1.34 1.47 1.72 1.56 1.17 0.96
0.05 0.03 0.02 0.01 0.01 0.01 0.02 0.03 0.05 0.06 0.05 0.05 0.05 0.05 0.04 0.05 0.04 0.05 0.07 0.10 0.11 0.10 0.12 0.17 0.26 0.35 0.41 0.47 0.62 0.77 0.99 1.11 1.25 1.40 1.39 1.40 1.45 1.47 1.53 1.72 1.81 1.72 1.66 1.71 1.66 1.77 1.84 1.58 1.29
0.02 0.01 0.01 0.01 0.00 0.00 0.01 0.02 0.04 0.06 0.07 0.08 0.07 0.07 0.06 0.04 0.04 0.04 0.04 0.06 0.09 0.08 0.10 0.17 0.31 0.50 0.70 0.82 1.05 1.33 1.58 1.66 1.58 1.57 1.61 1.59 1.62 1.67 1.63 1.73 1.91 1.85 1.78 1.77 1.88 2.03 2.19 2.06 1.79
0.00 0.00 0.01 0.00 0.00 0.00 0.00 0.02 0.04 0.10 0.14 0.15 0.14 0.13 0.11 0.11 0.09 0.07 0.08 0.08 0.09 0.12 0.20 0.36 0.61 0.91 1.16 1.32 1.51 1.72 1.83 1.87 1.79 1.81 1.79 1.77 1.68 1.60 1.58 1.69 1.89 2.02 2.08 2.09 2.13 2.07 2.25 2.35 2.12
0.00 0.00 0.00 0.00 0.00 0.00 0.00 0.02 0.07 0.16 0.24 0.27 0.28 0.27 0.25 0.24 0.18 0.19 0.21 0.22 0.28 0.39 0.57 0.86 1.12 1.37 1.52 1.58 1.68 1.88 2.03 2.19 2.20 2.08 1.93 1.81 1.76 1.68 1.59 1.63 1.70 1.74 1.81 1.91 2.04 2.06 2.19 2.24 2.28
0.01 0.02 0.02 0.02 0.02 0.01 0.01 0.05 0.16 0.26 0.31 0.36 0.38 0.34 0.32 0.30 0.29 0.35 0.45 0.55 0.70 0.82 1.00 1.20 1.35 1.50 1.51 1.52 1.58 1.71 1.90 2.06 2.08 2.09 2.05 1.92 1.76 1.66 1.57 1.51 1.60 1.62 1.62 1.74 1.84 1.91 2.07 2.17 2.24
0.03 0.07 0.07 0.05 0.05 0.05 0.06 0.18 0.27 0.26 0.27 0.33 0.36 0.35 0.34 0.34 0.41 0.57 0.72 0.86 0.98 1.09 1.19 1.22 1.22 1.27 1.30 1.32 1.36 1.44 1.50 1.53 1.59 1.70 1.62 1.48 1.35 1.30 1.30 1.23 1.27 1.39 1.44 1.61 1.68 1.61 1.64 1.78 1.91
0.01 0.04 0.10 0.09 0.08 0.11 0.15 0.36 0.40 0.31 0.25 0.25 0.27 0.33 0.43 0.57 0.68 0.77 0.88 0.97 1.01 1.14 1.20 1.16 1.13 1.12 1.06 1.00 1.05 1.07 1.11 1.17 1.20 1.22 1.17 1.09 1.04 1.00 0.96 0.96 0.96 1.02 1.10 1.30 1.50 1.48 1.49 1.55 1.61
0.01 0.03 0.09 0.18 0.14 0.13 0.20 0.44 0.44 0.29 0.23 0.22 0.24 0.32 0.48 0.70 0.94 1.08 1.08 0.99 0.90 0.94 1.02 1.01 0.97 0.92 0.84 0.78 0.82 0.85 0.92 0.94 0.93 0.91 0.86 0.84 0.78 0.78 0.75 0.77 0.85 0.89 0.89 0.97 1.08 1.27 1.36 1.41 1.47
0.02 0.05 0.13 0.23 0.22 0.23 0.31 0.47 0.43 0.32 0.28 0.25 0.30 0.40 0.58 0.80 1.00 1.24 1.38 1.27 1.00 0.80 0.82 0.79 0.76 0.80 0.79 0.75 0.77 0.77 0.70 0.64 0.66 0.69 0.63 0.62 0.66 0.69 0.69 0.66 0.67 0.71 0.72 0.82 0.91 0.96 1.08 1.16 1.30
0.04 0.10 0.16 0.20 0.23 0.34 0.56 0.70 0.60 0.49 0.44 0.43 0.47 0.54 0.61 0.88 1.17 1.31 1.36 1.23 1.05 0.78 0.69 0.68 0.66 0.70 0.76 0.70 0.72 0.71 0.61 0.49 0.47 0.47 0.45 0.44 0.48 0.54 0.54 0.57 0.62 0.61 0.62 0.63 0.63 0.68 0.74 0.81 0.91
0.11 0.19 0.27 0.35 0.39 0.41 0.54 0.65 0.53 0.55 0.61 0.56 0.60 0.70 0.72 0.78 0.83 0.85 0.96 0.97 0.91 0.78 0.71 0.75 0.80 0.79 0.71 0.65 0.62 0.58 0.51 0.44 0.43 0.41 0.38 0.39 0.44 0.46 0.47 0.52 0.57 0.56 0.61 0.63 0.62 0.60 0.60 0.67 0.76